     2.10           OBSERVATION DATA    G (GPS)             RINEX VERSION / TYPE
teqc 2002Mar14 Lou Estey 20020315 16:26:05UTC               PGM / RUN BY / DATE
Solaris 2.7|Ultra 2|cc SC5.0|=+-|*Sparc                     COMMENT
-Unknown-                                                   MARKER NAME
-Unknown- -Unknown-                                         OBSERVER / AGENCY
1113 BENCHMARK ACT 1997.11.17                               REC # / TYPE / VERS
-Unknown- -Unknown-                                         ANT # / TYPE
        0.0000        0.0000        0.0000                  APPROX POSITION XYZ
        0.0000        0.0000        0.0000                  ANTENNA: DELTA H/E/N
     1     1                                                WAVELENGTH FACT L1/2
     5    L1    L2    C1    P2    P1                        # / TYPES OF OBSERV
P1 = P1 TurboRogue; = Y1 Benchmark                          COMMENT
L1 = L1(CA)                                                 COMMENT
P2 = P2 TurboRogue; = Y2 Benchmark                          COMMENT
L2 = L2(P2) TurboRogue; = L2(Y2) Benchmark                  COMMENT
SNR is mapped to RINEX snr flag value [1,4-9]               COMMENT
SNR: >=316 >=100 >=31.6 >=10 >=3.2 >0 bad=0                 COMMENT
L1 & L2: 9 8 7 6 5 4 1                                      COMMENT
  1998     4     9     0     0    0.0000000     GPS         TIME OF FIRST OBS
                                                            END OF HEADER
 98  4  9  0  0  0.0000000  0  7G30G17G25G24G 5G10G 6
 -16036868.827 8 -12496251.820 8  21000219.139    21000222.212    21000219.648
  -5101331.490 7  -3975057.460 6  23427648.369    23427652.489    23427647.441
     37577.638 6     29280.873 5  24164013.498    24164018.393    24164013.732
  -6473530.856 7  -5044299.841 7  22533488.035    22533491.375    22533487.510
  -5772148.528 7  -4497775.939 6  23007101.042    23007105.046    23007100.531
 -14165870.032 8 -11038323.932 8  21410748.044    21410750.630    21410747.262
 -18810624.443 9 -14657616.006 8  20710211.085    20710213.727    20710210.945
 98  4  9  0  0 30.0000000  0  7G30G17G25G24G 5G10G 6
 -15979302.430 8 -12451394.900 8  21011173.909    21011176.825    21011174.111
  -5198983.683 7  -4051150.002 6  23409065.521    23409069.646    23409064.851
     75624.702 6     58927.899 4  24171253.785    24171258.401    24171253.890
  -6389371.758 7  -4978721.333 7  22549502.718    22549506.215    22549502.319
  -5667567.201 7  -4416284.061 6  23027002.120    23027005.979    23027001.741
 -14171805.413 8 -11042948.883 8  21409618.577    21409621.210    21409617.811
 -18850276.581 9 -14688513.760 8  20702665.697    20702668.128    20702665.524
 98  4  9  0  1  0.0000000  0  7G30G17G25G24G 5G10G 6
 -15921196.836 8 -12406117.826 8  21022231.229    21022234.076    21022231.401
  -5296454.471 7  -4127101.168 6  23390517.049    23390521.438    23390516.580
    114134.831 6     88935.747 5  24178582.014    24178586.854    24178581.506
  -6305046.369 7  -4913013.257 7  22565548.967    22565552.956    22565548.864
  -5562718.654 7  -4334583.962 6  23046954.627    23046958.329    23046953.998
 -14177132.911 8 -11047100.156 8  21408604.627    21408607.421    21408604.027
 -18889603.264 9 -14719157.905 8  20695181.953    20695184.588    20695181.840
 98  4  9  0  1 30.0000000  0  7G30G10G17G25G24G 5G 6
 -15862553.940 8 -12360422.076 8  21033390.480    21033393.518    21033390.755
 -14181850.740 8 -11050776.365 8  21407706.805    21407709.736    21407706.058
  -5393749.031 7  -4202915.046 6  23372002.514    23372006.980    23372001.696
    153108.296 6    119304.644 5  24185998.405    24186003.133    24185998.282
  -6220561.817 7  -4847181.165 7  22581626.190    22581630.003    22581625.796
  -5457619.309 7  -4252688.416 6  23066954.027    23066958.264    23066953.738
 -18928598.793 9 -14749544.011 8  20687761.485    20687763.962    20687761.191
 98  4  9  0  2  0.0000000  0  7G30G10G17G25G24G 5G 6
 -15803379.253 8 -12314311.949 8  21044651.203    21044654.162    21044651.443
 -14185965.795 8 -11053982.875 8  21406923.716    21406926.829    21406922.861
  -5490855.978 7  -4278582.703 6  23353523.645    23353528.132    23353522.894
    192556.852 6    150043.745 4  24193505.535    24193509.959    24193505.436
  -6135922.729 7  -4781228.648 7  22597732.475    22597735.932    22597732.093
  -5352291.876 7  -4170615.161 6  23086997.620    23087001.602    23086996.746
 -18967260.105 9 -14779669.686 8  20680404.206    20680406.870    20680404.202
 98  4  9  0  2 30.0000000  0  7G30G10G17G25G24G 5G 6
 -15743674.828 8 -12267789.034 8  21056012.623    21056015.503    21056012.802
 -14189471.285 8 -11056714.406 8  21406256.575    21406259.516    21406255.837
  -5587762.752 7  -4354094.380 6  23335082.841    23335087.645    23335082.309
    232476.793 6    181150.155 4  24201102.124    24201106.028    24201102.354
  -6051151.661 7  -4715173.282 7  22613863.785    22613867.631    22613863.673
  -5246755.528 7  -4088379.152 6  23107080.066    23107084.800    23107079.713
 -19005587.023 9 -14809534.795 8  20673111.145    20673113.551    20673110.896
 98  4  9  0  3  0.0000000  0  7G30G10G17G25G24G 5G 6
 -15683436.019 8 -12220849.715 8  21067475.451    21067478.475    21067475.756
 -14192355.290 8 -11058961.662 8  21405707.984    21405710.836    21405707.197
  -5684469.683 7  -4429450.334 7  23316680.365    23316684.778    23316679.451
    272842.658 6    212604.027 4  24208783.076    24208786.959    24208783.397
  -5966242.984 7  -4649010.700 7  22630021.250    22630025.378    22630021.085
  -5141029.837 7  -4005995.564 6  23127199.587    23127203.318    23127198.589
 -19043580.172 9 -14839139.828 8  20665881.026    20665883.583    20665880.949
 98  4  9  0  3 30.0000000  0  6G30G10G17G24G 5G 6
 -15622668.584 8 -12173498.484 8  21079039.009    21079042.254    21079039.331
 -14194607.289 8 -11060716.444 8  21405279.613    21405282.155    21405278.761
  -5780976.703 7  -4504650.503 7  23298315.483    23298320.152    23298314.658
  -5881181.312 7  -4582728.913 7  22646207.840    22646211.640    22646207.441
  -5035129.699 7  -3923476.073 6  23147352.101    23147355.741    23147351.181
 -19081231.059 9 -14868478.163 8  20658716.410    20658718.788    20658716.239
 98  4  9  0  4  0.0000000  0  7G30G10G17G25G24G 5G 6
 -15561384.405 8 -12125744.590 8  21090701.179    21090704.286    21090701.364
 -14196221.483 8 -11061974.237 8  21404972.284    21404974.860    21404971.446
  -5877288.237 7  -4579698.347 7  23279988.202    23279992.510    23279987.351
         0.18416                  24224401.041                    24224400.784
  -5795967.285 7  -4516328.392 7  22662424.308    22662427.669    22662423.910
  -4929042.520 7  -3840810.816 6  23167539.438    23167543.388    23167538.583
 -19118541.863 9 -14897551.496 8  20651616.376    20651618.849    20651616.211
 98  4  9  0  4 30.0000000  0  6G30G10G17G24G 5G 6
 -15499588.439 8 -12077591.904 8  21102460.472    21102463.587    21102460.722
 -14197200.778 8 -11062737.301 8  21404786.044    21404788.847    21404785.255
  -5973400.768 7  -4654591.138 7  23261698.364    23261702.942    23261697.761
  -5710593.091 7  -4449803.069 7  22678669.793    22678673.784    22678669.599
  -4822762.584 7  -3757995.320 6  23187763.663    23187767.513    23187763.087
 -19155517.289 9 -14926363.496 8  20644580.050    20644582.547    20644579.940
 98  4  9  0  5  0.0000000  0  7G30G10G17G25G24G 5G 6
 -15437284.907 8 -12029043.714 8  21114316.540    21114319.646    21114316.864
 -14197548.292 8 -11063008.068 8  21404719.816    21404722.617    21404718.970
  -6069324.862 7  -4729337.086 7  23243444.853    23243448.847    23243443.861
        -0.72816                  24240352.047                    24240352.227
  -5625042.084 7  -4383139.965 7  22694949.838    22694953.688    22694949.591
  -4716295.419 7  -3675033.953 6  23208023.092    23208027.661    23208023.081
 -19192161.980 9 -14954917.779 8  20637606.817    20637609.205    20637606.655
 98  4  9  0  5 30.0000000  0  6G30G10G17G24G 5G 6
 -15374483.244 8 -11980107.369 8  21126267.463    21126270.341    21126267.603
 -14197263.302 8 -11062785.980 8  21404774.110    21404776.906    21404773.339
  -6165062.069 7  -4803937.416 7  23225226.300    23225230.799    23225225.561
  -5539324.566 7  -4316347.131 7  22711261.486    22711265.367    22711261.184
  -4609635.556 7  -3591922.447 6  23228320.029    23228324.603    23228319.448
 -19228474.893 9 -14983213.535 8  20630696.657    20630699.163    20630696.445
 98  4  9  0  6  0.0000000  0  6G30G10G17G24G 5G 6
 -15311184.087 8 -11930783.365 8  21138312.665    21138315.857    21138313.015
 -14196357.649 8 -11062080.258 8  21404946.086    21404949.100    21404945.407
  -6260609.498 7  -4878389.878 7  23207043.788    23207048.358    23207043.293
  -5453453.314 7  -4249434.498 7  22727602.094    22727605.943    22727601.973
  -4502780.413 6  -3508658.785 6  23248654.187    23248658.780    23248653.479
 -19264458.620 9 -15011252.779 8  20623849.319    20623851.704    20623849.136
 98  4  9  0  6 30.0000000  0  7G30G10G17G25G24G 5G 6
 -15247369.775 8 -11881057.939 8  21150456.244    21150459.218    21150456.396
 -14194824.653 8 -11060885.695 8  21405237.964    21405240.467    21405237.205
  -6355954.028 7  -4952684.219 7  23188900.352    23188904.795    23188899.696
        -0.69016                  24264900.644                    24264900.981
  -5367426.905 7  -4182400.967 7  22743972.130    22743976.089    22743971.982
  -4395741.420 6  -3425251.877 6  23269022.363    23269027.770    23269022.231
 -19300116.251 9 -15039037.930 8  20617063.767    20617066.366    20617063.668
 98  4  9  0  7  0.0000000  0  6G30G10G17G24G 5G 6
 -15183047.195 8 -11830936.465 8  21162696.533    21162699.366    21162696.635
 -14192648.537 8 -11059190.005 8  21405651.803    21405654.539    21405651.122
  -6451100.398 7  -5026824.158 6  23170794.402    23170798.790    23170793.621
  -5281251.175 7  -4115251.090 7  22760371.133    22760374.970    22760370.869
  -4288518.175 7  -3341701.375 6  23289427.546    23289431.536    23289426.504
 -19335436.774 9 -15066560.395 8  20610342.642    20610345.069    20610342.479
 98  4  9  0  7 30.0000000  0  7G30G10G17G25G24G 5G 6
 -15118222.430 8 -11780423.676 8  21175031.997    21175035.263    21175032.399
 -14189832.713 8 -11056995.832 8  21406187.773    21406190.392    21406187.051
  -6546026.936 7  -5100792.805 6  23152730.823    23152735.082    23152729.778
        -0.17716                  24281678.659                    24281678.424
  -5194937.346 7  -4047993.586 6  22776795.829    22776799.688    22776795.376
  -4181105.156 7  -3258003.015 6  23309866.932    23309871.934    23309866.347
 -19370413.196 9 -15093814.729 8  20603686.726    20603689.189    20603686.577
 98  4  9  0  8  0.0000000  0  6G30G10G17G24G 5G 6
 -15052885.445 8 -11729511.758 8  21187465.152    21187468.421    21187465.669
 -14186380.896 8 -11054306.088 8  21406844.711    21406847.365    21406843.916
  -6640716.787 7  -5174577.017 6  23134711.606    23134715.714    23134710.960
  -5108477.423 7  -3980622.256 7  22793248.763    22793252.879    22793248.265
  -4073510.932 7  -3174163.433 6  23330342.112    23330346.395    23330341.348
 -19405044.060 9 -15120799.795 8  20597096.783    20597099.153    20597096.601
 98  4  9  0  8 30.0000000  0  7G30G10G17G25G24G 5G 6
 -14987035.175 8 -11678199.876 8  21199996.391    21199999.324    21199996.646
 -14182289.680 8 -11051118.104 8  21407623.082    21407626.110    21407622.352
  -6735173.417 7  -5248179.503 7  23116737.303    23116741.350    23116736.462
        -0.60816         0.34814  24298792.424    24298795.848    24298791.891
  -5021868.207 7  -3913134.587 7  22809729.783    22809734.058    22809729.441
  -3965738.516 6  -3090185.025 6  23350850.118    23350854.887    23350849.410
 -19439321.061 9 -15147509.122 8  20590573.839    20590576.452    20590573.793
 98  4  9  0  9  0.0000000  0  7G30G10G17G25G24G 5G 6
 -14920691.538 8 -11626503.549 8  21212621.426    21212624.128    21212621.546
 -14177583.843 8 -11047451.199 8  21408518.653    21408521.378    21408517.836
  -6829404.994 7  -5321606.633 7  23098805.490    23098809.679    23098804.800
     45634.179 6     35559.885 5  24307476.470    24307480.668    24307475.894
  -4935119.168 7  -3845537.994 6  22826237.563    22826241.954    22826237.347
  -3857792.696 6  -3006071.458 6  23371391.274    23371396.314    23371391.027
 -19473232.869 9 -15173933.884 8  20584120.808    20584123.169    20584120.684
 98  4  9  0  9 30.0000000  0  7G30G10G17G25G24G 5G 6
 -14853854.544 8 -11574422.790 8  21225339.985    21225342.805    21225340.251
 -14172276.184 8 -11043315.339 8  21409528.639    21409531.461    21409527.881
  -6923406.476 7  -5394854.460 7  23080917.486    23080921.732    23080916.829
     91713.095 6     71465.497 5  24316244.631    24316249.092    24316244.751
  -4848230.266 7  -3777832.367 6  22842772.358    22842776.153    22842771.903
  -3749678.834 6  -2921826.998 6  23391964.721    23391969.844    23391964.242
 -19506792.374 9 -15200084.127 8  20577734.415    20577737.045    20577734.360
 98  4  9  0 10  0.0000000  0  7G30G10G17G25G24G 5G 6
 -14786524.538 8 -11521957.861 8  21238152.292    21238155.387    21238152.661
 -14166361.826 8 -11038706.732 8  21410653.997    21410656.961    21410653.202
  -7017202.387 7  -5467942.106 7  23063068.563    23063072.924    23063068.059
    138223.322 6    107707.190 5  24325095.297    24325099.597    24325095.478
  -4761198.403 7  -3710015.356 6  22859333.680    22859337.673    22859333.184
  -3641397.872 7  -2837452.295 6  23412570.586    23412575.570    23412569.894
 -19540007.512 9 -15225966.030 8  20571413.954    20571416.324    20571413.814
 98  4  9  0 10 30.0000000  0  7G30G10G17G25G24G 5G 6
 -14718713.474 8 -11469118.089 8  21251056.280    21251059.369    21251056.630
 -14159836.866 8 -11033622.334 8  21411895.689    21411898.400    21411894.846
  -7110813.600 7  -5540885.828 7  23045255.056    23045259.344    23045254.402
    185166.538 6    144286.282 5  24334028.296    24334032.920    24334028.250
  -4674034.669 7  -3642095.604 6  22875920.612    22875924.881    22875920.308
  -3532938.206 7  -2752938.384 6  23433209.570    23433214.708    23433208.791
 -19572884.344 9 -15251584.324 8  20565157.502    20565159.979    20565157.431
 98  4  9  0 11  0.0000000  0  7G30G10G17G25G24G 5G 6
 -14650432.691 8 -11415912.302 8  21264049.685    21264052.853    21264049.953
 -14152697.067 8 -11028058.842 8  21413254.329    21413257.309    21413253.577
  -7204227.340 7  -5613675.669 7  23027478.884    23027483.060    23027478.312
    232547.997 6    181206.860 5  24343044.591    24343049.643    24343044.832
  -4586751.532 7  -3574082.793 6  22892529.535    22892533.767    22892529.565
  -3424299.164 7  -2668284.669 6  23453883.269    23453888.067    23453882.533
 -19605437.851 9 -15276950.674 8  20558962.869    20558965.360    20558962.691
 98  4  9  0 11 30.0000000  0  7G30G10G17G25G24G 5G 6
 -14581667.701 8 -11362329.210 8  21277135.314    21277138.264    21277135.487
 -14144924.176 8 -11022002.030 8  21414733.389    21414736.299    21414732.622
  -7297437.788 7  -5686307.113 7  23009741.785    23009745.589    23009740.924
    280351.705 6    218456.467 5  24352141.647    24352146.596    24352141.422
  -4499338.166 7  -3505968.498 6  22909164.623    22909168.475    22909163.990
  -3315468.921 6  -2583481.983 6  23474592.396    23474598.093    23474591.782
 -19637674.043 9 -15302069.764 8  20552828.597    20552830.930    20552828.343
 98  4  9  0 12  0.0000000  0  7G30G10G17G25G24G 5G 6
 -14512413.354 8 -11308364.802 8  21290314.178    21290316.955    21290314.254
 -14136514.829 8 -11015449.278 8  21416333.864    21416336.448    21416333.074
  -7390447.479 7  -5758782.107 7  22992042.487    22992046.432    22992041.468
    328578.200 6    256035.508 5  24361318.467    24361323.876    24361318.375
  -4411793.640 7  -3437752.002 6  22925823.350    22925827.248    22925822.941
  -3206433.257 6  -2498519.228 6  23495341.197    23495346.541    23495341.065
 -19669571.239 9 -15326924.706 8  20546758.631    20546761.184    20546758.589
 98  4  9  0 12 30.0000000  0  7G30G10G17G25G24G 5G 6
 -14442669.408 8 -11254018.888 8  21303585.832    21303588.940    21303586.183
 -14127469.222 8 -11008400.737 8  21418055.296    21418057.888    21418054.434
  -7483232.043 7  -5831081.692 7  22974385.757    22974389.888    22974385.049
    377219.140 6    293937.499 5  24370574.988    24370580.024    24370574.637
  -4324128.045 7  -3369441.190 6  22942505.105    22942510.011    22942504.921
  -3097204.906 6  -2413406.327 6  23516127.451    23516132.445    23516126.704
 -19701109.133 9 -15351499.670 8  20540757.335    20540759.770    20540757.110
 98  4  9  0 13  0.0000000  0  7G30G10G17G25G24G 5G 6
 -14372429.461 8 -11199286.485 8  21316952.101    21316955.092    21316952.385
 -14117787.170 8 -11000856.263 8  21419897.574    21419900.162    21419896.783
  -7575772.106 7  -5903190.751 7  22956776.203    22956780.153    22956775.410
    426264.238 6    332154.430 5  24379908.031    24379913.159    24379908.260
  -4236337.400 7  -3301032.915 6  22959211.631    22959216.040    22959211.370
  -2987805.203 6  -2328159.908 5  23536944.690    23536950.032    23536944.453
 -19732268.300 9 -15375779.524 8  20534827.886    20534830.275    20534827.704
 98  4  9  0 13 30.0000000  0  7G30G10G17G25G24G 5G 6
 -14301687.205 8 -11144162.667 8  21330413.803    21330416.941    21330414.084
 -14107472.092 8 -10992818.533 8  21421860.380    21421863.049    21421859.560
  -7668077.859 7  -5975117.238 7  22939211.253    22939214.886    22939210.229
    475702.142 6    370677.417 5  24389315.947    24389320.392    24389315.608
  -4148415.346 7  -3232522.246 6  22975942.740    22975946.922    22975942.406
  -2878243.239 7  -2242787.020 4  23557794.378    23557798.479    23557793.737
 -19763039.815 9 -15399757.314 8  20528972.114    20528974.776    20528972.117
 98  4  9  0 14  0.0000000  0  7G30G10G17G25G24G 5G 6
 -14230458.503 8 -11088659.798 8  21343968.254    21343971.255    21343968.440
 -14096531.074 8 -10984293.054 8  21423942.516    21423945.261    21423941.675
  -7760147.576 7  -6046859.804 7  22921690.426    22921694.383    22921689.859
    525537.498 6    409510.115 5  24398798.463    24398803.838    24398798.909
  -4060383.522 7  -3163926.069 7  22992694.054    22992699.038    22992693.683
  -2768539.639 7  -2157303.754 5  23578670.567    23578675.025    23578669.912
 -19793425.730 9 -15423434.634 8  20523189.827    20523192.380    20523189.737
 98  4  9  0 14 30.0000000  0  7G30G10G17G25G24G 5G 6
 -14158747.698 8 -11032781.269 8  21357614.474    21357617.508    21357614.580
 -14084966.818 8 -10975281.929 8  21426143.117    21426145.602    21426142.222
  -7851973.262 7  -6118412.212 7  22904216.786    22904220.524    22904215.892
    575757.525 6    448642.571 5  24408355.516    24408360.390    24408355.549
  -3972253.763 7  -3095253.558 7  23009465.255    23009469.533    23009465.023
  -2658713.968 7  -2071725.402 5  23599570.280    23599574.515    23599569.327
 -19823451.213 9 -15446831.101 8  20517476.212    20517478.690    20517476.114
 98  4  9  0 15  0.0000000  0  7G30G10G17G25G24G 5G 6
 -14086558.902 8 -10976530.279 8  21371351.320    21371354.544    21371351.709
 -14072788.580 8 -10965792.379 8  21428460.395    21428462.946    21428459.566
  -7943567.552 7  -6189784.318 7  22886786.809    22886790.827    22886786.033
    626363.958 6    488076.099 5  24417985.742    24417990.541    24417985.641
  -3884016.920 7  -3026497.604 7  23026256.312    23026260.731    23026255.992
  -2548747.055 6  -1986036.972 5  23620495.834    23620500.327    23620495.027
 -19853135.664 9 -15469961.827 8  20511827.506    20511829.968    20511827.330
 98  4  9  0 15 30.0000000  0  7G30G10G17G25G24G 5G 6
 -14013900.887 8 -10919913.665 8  21385177.804    21385180.863    21385178.138
 -14060007.375 8 -10955832.988 8  21430892.585    21430895.322    21430891.834
  -8034941.259 7  -6260984.534 7  22869398.796    22869402.911    22869397.976
    677357.627 6    527811.380 5  24427689.708    24427694.607    24427689.453
  -3795669.843 7  -2957655.754 7  23043068.104    23043072.379    23043067.487
  -2438622.755 6  -1900225.917 6  23641451.800    23641456.762    23641451.216
 -19882487.241 9 -15492833.175 8  20506241.698    20506244.377    20506241.780
 98  4  9  0 16  0.0000000  0  7G30G17G25G24G 5G10G 6
 -13940783.195 8 -10862938.854 8  21399091.681    21399094.782    21399092.017
  -8126085.488 7  -6332005.917 7  22852054.396    22852058.679    22852053.738
    728736.171 6    567846.561 5  24437467.082    24437471.408    24437466.586
  -3707214.440 7  -2888729.525 7  23059900.804    23059905.131    23059900.512
  -2328335.600 6  -1814287.980 6  23662438.181    23662443.797    23662437.705
 -14046632.015 8 -10945410.623 8  21433437.654    21433440.501    21433436.904
 -19911498.355 9 -15515439.225 8  20500721.241    20500723.790    20500721.067
 98  4  9  0 16 30.0000000  0  7G30G17G25G24G 5G10G 6
 -13867197.680 8 -10805599.509 8  21413094.884    21413097.664    21413094.946
  -8217008.768 7  -6402855.133 7  22834752.071    22834756.577    22834751.515
    780500.132 6    608182.076 5  24447317.252    24447322.066    24447316.929
  -3618635.186 7  -2819706.763 7  23076756.892    23076761.175    23076756.663
  -2217884.113 6  -1728222.026 6  23683456.878    23683462.461    23683455.657
 -14032662.254 8 -10934525.087 8  21436096.079    21436098.980    21436095.387
 -19940156.181 9 -15537769.982 8  20495267.678    20495270.325    20495267.640
 98  4  9  0 17  0.0000000  0  7G30G17G25G24G 5G10G 6
 -13793150.318 8 -10747900.294 8  21427185.670    21427188.472    21427185.784
  -8307726.657 7  -6473544.310 7  22817489.222    22817493.405    22817488.474
    832658.409 6    648824.844 5  24457242.633    24457247.560    24457242.759
  -3529916.582 7  -2750575.428 6  23093639.211    23093643.859    23093638.659
  -2107282.440 6  -1642039.018 5  23704504.121    23704509.006    23704503.477
 -14018102.409 8 -10923179.746 8  21438866.901    21438869.525    21438866.111
 -19968441.291 9 -15559810.313 8  20489885.388    20489887.896    20489885.213
 98  4  9  0 17 30.0000000  0  7G17G25G30G24G 5G10G 6
  -8398233.101 7  -6544068.720 7  22800266.523    22800270.305    22800265.892
    885214.887 6    689777.878 5  24467243.633    24467248.847    24467243.676
 -13718638.862 8 -10689839.439 8  21441364.526    21441367.496    21441364.612
  -3441072.306 7  -2681346.166 6  23110545.919    23110550.110    23110545.647
  -1996564.621 6  -1555765.465 5  23725572.461    23725578.327    23725572.300
 -14002944.102 8 -10911368.074 8  21441751.184    21441753.995    21441750.510
 -19996349.827 9 -15581557.213 8  20484574.725    20484577.089    20484574.486
 98  4  9  0 18  0.0000000  0  7G30G17G25G24G 5G10G 6
 -13643658.184 8 -10631412.953 8  21455632.804    21455635.877    21455632.834
  -8488520.520 7  -6614422.473 7  22783085.822    22783089.152    22783084.593
    938167.127 6    731039.324 5  24477319.858    24477325.384    24477320.634
  -3352108.469 7  -2612023.727 7  23127475.689    23127479.791    23127475.194
  -1885741.493 6  -1469409.898 4  23746661.584    23746666.140    23746661.224
 -13987163.001 8 -10899071.109 8  21444754.419    21444757.185    21444753.761
 -20023888.419 9 -15603015.837 8  20479334.098    20479336.638    20479334.024
 98  4  9  0 18 30.0000000  0  7G17G25G30G24G 5G10G 6
  -8578587.752 7  -6684604.664 7  22765946.236    22765949.655    22765945.465
    991515.478 6    772609.423 5  24487471.495    24487477.092    24487471.670
 -13568198.047 8 -10572612.869 8  21469992.290    21469995.492    21469992.508
  -3263018.147 7  -2542602.749 6  23144428.445    23144432.965    23144428.109
  -1774823.442 6                  23767768.870                    23767768.315
 -13970741.025 8 -10886274.757 8  21447879.475    21447882.129    21447878.733
 -20051065.003 9 -15624192.383 8  20474162.834    20474165.126    20474162.582
 98  4  9  0 19  0.0000000  0  6G17G30G24G25G10G 6
  -8668416.060 7  -6754600.679 7  22748852.207    22748855.821    22748851.462
 -13492263.345 8 -10513443.000 8  21484442.123    21484445.373    21484442.480
  -3173807.190 7  -2473087.767 6  23161405.182    23161409.255    23161404.658
   1045252.327 6    814482.240 5  24497697.035    24497702.920    24497697.940
 -13953675.185 8 -10872976.691 8  21451127.002    21451129.459    21451126.234
 -20077896.860 9 -15645100.306 8  20469056.659    20469059.238    20469056.596
 98  4  9  0 19 30.0000000  0  7G17G25G30G24G 6G22G10
  -8757990.788 7  -6824399.102 7  22731806.601    22731810.252    22731805.841
   1099369.820 6    856651.664 5  24507996.154    24508000.851    24507996.400
 -13415854.902 8 -10453903.978 8  21498982.265    21498985.671    21498982.588
  -3084492.272 7  -2403491.774 6  23178401.079    23178405.087    23178400.802
 -20104391.323 9 -15665745.327 8  20464014.921    20464017.432    20464014.802
        -0.03415        -0.42315  24587487.658    24587493.174    24587486.561
 -13935965.472 8 -10859176.914 8  21454496.911    21454499.668    21454496.176
 98  4  9  0 20  0.0000000  0  8G17G25G30G24G 6G22G 5G10
  -8847313.434 7  -6894001.097 7  22714809.092    22714812.736    22714808.386
   1153862.860 6    899113.740 5  24518365.227    24518370.697    24518365.434
 -13338983.616 8 -10394004.296 8  21513610.373    21513613.660    21513610.796
  -2995060.089 7  -2333804.399 6  23195419.874    23195423.639    23195419.293
 -20130544.662 9 -15686124.540 8  20459037.971    20459040.566    20459037.936
    -93439.693 5    -72810.372 5  24569707.330    24569712.100    24569705.524
        -1.18216        -0.40416  23831230.162    23831235.208    23831229.305
 -13917625.948 8 -10844886.374 8  21457986.791    21457989.621    21457985.992
 98  4  9  0 20 30.0000000  0  8G17G25G30G24G 6G22G 5G10
  -8936395.866 7  -6963415.897 7  22697857.419    22697860.930    22697856.396
   1208733.601 6    941870.116 5  24528807.439    24528812.450    24528807.363
 -13261661.713 8 -10333753.486 8  21528324.433    21528327.636    21528324.671
  -2905513.219 7  -2264027.665 6  23212459.725    23212463.696    23212459.356
 -20156346.276 9 -15706229.681 8  20454128.196    20454130.742    20454128.112
   -186617.897 6   -145416.623 5  24551976.004    24551980.508    24551974.911
    111445.819 6     86841.305 6  23852437.377    23852442.870    23852436.985
 -13898687.588 8 -10830129.211 8  21461590.788    21461593.477    21461589.941
 98  4  9  0 21  0.0000000  0  8G17G25G30G24G 6G22G 5G10
  -9025241.847 7  -7032646.449 7  22680950.196    22680954.245    22680949.446
   1263975.691 6    984915.840 5  24539319.716    24539324.842    24539320.166
 -13183907.645 8 -10273165.926 8  21543120.675    21543123.707    21543120.799
  -2815868.944 7  -2194175.012 6  23229518.828    23229522.409    23229518.483
 -20181787.777 9 -15726054.211 8  20449286.826    20449289.292    20449286.717
   -279519.630 6                  24534297.245                    24534296.259
    223037.300 6    173795.578 6  23873672.276    23873678.460    23873671.833
 -13879174.405 8 -10814924.127 8  21465304.038    21465306.611    21465303.213
 98  4  9  0 21 30.0000000  0  7G17G25G30G24G 6G 5G10
  -9113856.492 7  -7101696.742 7  22664087.282    22664091.155    22664086.525
   1319587.614 6   1028249.756 5  24549902.333    24549907.289    24549902.545
 -13105731.823 8 -10212249.731 8  21557996.955    21558000.097    21557997.129
  -2726131.743 7  -2124249.952 6  23246594.367    23246599.184    23246594.289
 -20206843.688 9 -15745578.287 8  20444518.854    20444521.398    20444518.821
    334751.822 6    260845.720 6  23894931.475    23894936.981    23894930.854
 -13859082.736 8 -10799268.276 8  21469127.378    21469129.760    21469126.507
 98  4  9  0 22  0.0000000  0  9G17G25G30G24G 6G22G 5G13G10
  -9202237.943 7  -7170565.323 7  22647268.977    22647272.841    22647268.166
   1375564.452 5   1071867.997 5  24560554.612    24560559.295    24560554.632
 -13027130.763 8 -10151002.178 8  21572954.068    21572957.378    21572954.323
  -2636293.193 7  -2054245.927 6  23263690.650    23263694.622    23263690.418
 -20231504.035 9 -15764794.131 8  20439826.198    20439828.652    20439826.027
         0.00916                  24499109.580                    24499108.552
    446572.046 6    347978.242 6  23916210.376    23916215.335    23916209.534
        -0.08211                  24506684.057                    24506683.583
 -13838398.925 8 -10783151.015 8  21473063.074    21473065.817    21473062.259
 98  4  9  0 22 30.0000000  0  7G17G25G30G24G 6G 5G10
  -9290375.940 7  -7239244.206 7  22630496.646    22630500.389    22630496.022
   1431897.321 5   1115763.675 5  24571274.126    24571279.300    24571273.831
 -12948098.708 8 -10089418.786 8  21587993.356    21587996.485    21587993.657
  -2546364.270 7  -1984171.478 6  23280803.402    23280806.905    23280803.242
 -20255767.179 9 -15783700.468 8  20435209.021    20435211.447    20435208.884
    558495.289 6    435191.061 6  23937508.766    23937513.866    23937508.023
 -13817112.647 8 -10766564.299 8  21477113.967    21477116.777    21477113.175
 98  4  9  0 23  0.0000000  0  8G17G25G30G24G 6G22G 5G10
  -9378253.528 7  -7307720.181 7  22613774.125    22613777.854    22613773.483
   1488586.112 6   1159936.712 5  24582061.726    24582066.641    24582061.337
 -12868635.004 8 -10027499.040 8  21603114.829    21603118.113    21603115.098
  -2456345.552 7  -1914027.053 6  23297933.378    23297937.482    23297933.268
 -20279636.644 9 -15802300.040 8  20430666.875    20430669.250    20430666.693
        -0.56215         0.30115  24464154.452    24464158.713    24464153.226
    670525.949 6    522487.578 6  23958827.468    23958832.740    23958826.744
 -13795197.664 8 -10749487.686 8  21481283.914    21481286.941    21481283.265
 98  4  9  0 23 30.0000000  0  9G17G25G30G24G 6G22G 5G13G10
  -9465874.944 7  -7375996.542 7  22597100.385    22597103.715    22597099.601
   1545636.780 5   1204391.731 5  24592917.988    24592923.243    24592918.114
 -12788731.240 8  -9965236.392 8  21618320.292    21618323.244    21618320.357
  -2366228.766 7  -1843806.231 6  23315082.563    23315086.655    23315082.301
 -20303113.157 9 -15820593.419 8  20426199.224    20426201.790    20426199.316
    -91406.413 5    -71224.924 6  24446760.894    24446764.768    24446759.137
    782658.158 6    609863.204 5  23980166.176    23980170.989    23980164.759
        -0.60311                  24479940.717                    24479940.431
 -13772636.445 8 -10731907.513 8  21485577.371    21485580.058    21485576.547
 98  4  9  0 24  0.0000000  0  8G17G25G30G24G 6G22G 5G10
  -9553246.524 7  -7444078.231 7  22580473.954    22580477.277    22580473.202
   1603047.222 6   1249127.088 5  24603842.938    24603848.027    24603842.948
 -12708387.896 8  -9902631.214 8  21633609.195    21633612.279    21633609.420
  -2276012.504 7  -1773507.868 6  23332250.483    23332254.138    23332249.763
 -20326212.179 9 -15838592.645 8  20421803.916    20421806.194    20421803.740
   -182519.922 6   -142222.345 6  24429421.507    24429426.555    24429420.977
    894899.621 6    697323.962 4  24001524.551    24001528.499    24001523.665
 -13749447.408 8 -10713838.133 8  21489990.061    21489992.802    21489989.289
 98  4  9  0 24 30.0000000  0  8G17G25G30G24G 6G22G13G10
  -9640379.820 7  -7511974.246 7  22563893.149    22563896.301    22563892.254
   1660824.001 6   1294147.879 4  24614837.620    24614841.705    24614837.495
 -12627623.120 8  -9839697.655 8  21648978.127    21648981.129    21648978.552
  -2185705.189 6  -1703138.581 6  23349434.845    23349439.169    23349434.316
 -20348936.787 9 -15856300.121 8  20417479.589    20417481.900    20417479.432
   -273351.273 6   -212999.935 6  24412136.348    24412142.000    24412136.631
        -0.00611                  24462506.439                    24462507.125
 -13725644.229 8 -10695290.195 8  21494519.645    21494522.511    21494518.873
 98  4  9  0 25  0.0000000  0  7G17G30G24G 6G22G 5G10
  -9727287.533 7  -7579694.483 7  22547355.250    22547358.257    22547354.226
 -12546440.371 8  -9776438.399 8  21664426.869    21664429.858    21664427.005
  -2095306.266 6  -1632697.916 6  23366637.256    23366641.307    23366637.004
 -20371278.757 9 -15873709.437 8  20413227.955    20413230.308    20413227.843
   -363894.203 6   -283552.792 6  24394906.823    24394911.931    24394906.445
         0.06415         0.33515  24044300.256    24044304.308    24044298.609
 -13701236.292 8 -10676271.024 8  21499164.439    21499166.995    21499163.677
 98  4  9  0 25 30.0000000  0  9G17G13G30G24G 6G22G 5G25G10
  -9813978.550 7  -7647245.861 7  22530858.218    22530861.465    22530857.299
         0.04914                  24445404.000                    24445404.789
 -12464834.942 8  -9712849.778 8  21679955.761    21679958.809    21679955.997
  -2004810.157 6  -1562181.536 6  23383857.672    23383862.353    23383857.409
 -20393227.484 9 -15890812.334 8  20409051.278    20409053.564    20409051.104
   -454125.421 6   -353862.755 5  24377737.851    24377741.129    24377736.363
    112540.567 6     87694.083 5  24065715.674    24065719.862    24065714.215
        -0.02716                  24637033.757                    24637034.095
 -13676251.138 8 -10656802.073 8  21503918.900    21503921.424    21503918.177
 98  4  9  0 26  0.0000000  0  7G17G30G24G 6G22G 5G10
  -9900438.229 7  -7714616.978 7  22514405.185    22514408.883    22514404.414
 -12382816.075 8  -9648939.007 8  21695563.243    21695566.666    21695563.577
  -1914214.697 6  -1491587.744 6  23401097.970    23401102.886    23401097.619
 -20414781.757 9 -15907607.861 8  20404949.367    20404951.836    20404949.326
   -544052.295 5   -423935.573 5  24360623.748    24360628.813    24360623.157
    225178.890 6                  24087149.677    24087148.573
 -13650697.593 8 -10636890.215 8  21508781.464    21508784.068    21508780.686
 98  4  9  0 26 30.0000000  0  7G17G30G24G 6G22G25G10
  -9986648.960 7  -7781794.108 7  22497999.861    22498003.544    22497999.212
 -12300374.916 8  -9584699.171 8  21711251.279    21711254.730    21711251.540
  -1823518.402 6  -1420915.345 6  23418356.855    23418361.597    23418356.381
 -20435934.541 9 -15924090.541 8  20400924.340    20400926.710    20400924.237
   -633680.558 6   -493775.712 4  24343568.207    24343572.606    24343567.871
         0.12616                  24659488.509                    24659488.941
 -13624569.426 8 -10616530.603 8  21513753.452    21513756.099    21513752.781
 98  4  9  0 27  0.0000000  0  8G17G13G30G24G 6G22G 5G10
 -10072591.889 8  -7848762.558 7  22481645.603    22481649.220    22481644.729
        -0.45215                  24420404.622                    24420405.309
 -12217488.362 8  -9520112.274 8  21727024.237    21727027.549    21727024.365
  -1732721.439 6  -1350164.510 6  23435635.043    23435639.523    23435634.691
 -20456689.227 9 -15940263.015 8  20396974.802    20396977.139    20396974.648
   -722996.243 6   -563372.274 6  24326572.854    24326576.797    24326571.686
        -0.40116        -0.20714  24130075.639    24130081.662    24130075.698
 -13597865.143 8 -10595722.069 8  21518835.349    21518837.918    21518834.649
 98  4  9  0 27 30.0000000  0  8G17G30G24G 6G22G 5G25G10
 -10158255.497 8  -7915513.364 7  22465344.334    22465347.803    22465343.521
 -12134155.811 8  -9455177.848 8  21742881.982    21742885.036    21742882.021
  -1641819.942 6  -1279332.211 6  23452933.014    23452937.229    23452932.653
 -20477054.380 9 -15956131.956 8  20393099.439    20393101.899    20393099.324
   -811996.406 6   -632722.971 6  24309636.321    24309640.708    24309635.204
    112944.600 6     88008.734 4  24151569.185    24151573.322    24151568.721
        -0.31216                  24682191.686                    24682191.674
 -13570577.577 8 -10574459.027 8  21524027.950    21524030.499    21524027.276
 98  4  9  0 28  0.0000000  0  7G17G13G30G24G 6G22G10
 -10243632.869 8  -7982041.122 7  22449097.452    22449100.992    22449096.803
        -0.54816                  24404168.001                    24404168.639
 -12050378.593 8  -9389896.932 8  21758824.473    21758827.455    21758824.474
  -1550831.464 6  -1208432.142 6  23470246.702    23470252.035    23470246.374
 -20497049.912 9 -15971712.878 8  20389294.451    20389296.735    20389294.210
   -900694.371 6   -701838.203 6  24292757.202    24292761.976    24292756.566
 -13542685.828 8 -10552725.194 8  21529335.421    21529338.029    21529334.686
 98  4  9  0 28 30.0000000  0  7G17G30G24G 6G22G 5G10
 -10328740.925 7  -8048359.024 7  22432901.741    22432905.263    22432901.078
 -11966153.099 8  -9324266.709 8  21774851.473    21774854.916    21774851.832
  -1459767.462 6  -1137473.257 6  23487576.227    23487580.911    23487575.495
 -20516683.711 9 -15987011.931 8  20385558.126    20385560.597    20385558.059
   -989076.563 6   -770707.347 6  24275938.577    24275943.115    24275937.728
        -0.42916                  24194606.169                    24194605.266
 -13514192.245 8 -10530522.397 8  21534757.578    21534760.235    21534756.755
 98  4  9  0 29  0.0000000  0  7G17G13G30G24G 6G22G10
 -10413600.087 7  -8114482.988 7  22416753.725    22416756.956    22416752.849
         0.17216                  24388262.939                    24388263.282
 -11881493.026 8  -9258297.844 8  21790962.051    21790965.248    21790962.354
  -1368633.749 7  -1066460.046 6  23504918.932    23504923.383    23504918.515
 -20535964.942 9 -16002036.260 8  20381889.116    20381891.502    20381889.032
  -1077128.062 6   -839318.791 5  24259182.491    24259187.331    24259181.898
 -13485092.521 8 -10507847.289 8  21540295.112    21540297.832    21540294.342
 98  4  9  0 29 30.0000000  0  7G17G30G24G 6G22G 5G10
 -10498220.489 7  -8180420.904 7  22400650.507    22400653.978    22400649.848
 -11796430.580 8  -9192015.454 8  21807148.910    21807152.248    21807149.165
  -1277438.319 7   -995398.718 6  23522272.915    23522277.516    23522272.349
 -20554894.108 9 -16016786.247 8  20378286.909    20378289.304    20378286.821
  -1164860.986 6   -907682.005 4  24242487.386    24242491.358    24242486.772
        -0.31716                  24237698.876                    24237698.489
 -13455390.843 8 -10484703.126 8  21545947.174    21545949.902    21545946.327
 98  4  9  0 30  0.0000000  0  7G17G13G30G24G 6G22G10
 -10582600.521 7  -8246171.522 7  22384593.386    22384596.947    22384592.744
        -0.81616                  24372690.107                    24372690.283
 -11710974.849 8  -9125426.595 8  21823410.944    21823413.835    21823410.853
  -1186191.592 7   -924297.425 6  23539635.967    23539640.634    23539635.699
 -20573468.080 9 -16031259.465 8  20374752.398    20374754.857    20374752.367
  -1252279.248 6                  24225852.148                    24225851.334
 -13425090.086 8 -10461092.145 8  21551713.302    21551715.859    21551712.455
 98  4  9  0 30 30.0000000  0  6G17G30G24G 6G 5G10
 -10666741.310 8  -8311735.729 7  22368582.161    22368585.495    22368581.585
 -11625137.967 8  -9058540.751 8  21839744.943    21839748.284    21839745.044
  -1094875.928 7   -853142.417 6  23557013.657    23557017.494    23557012.999
 -20591669.199 9 -16045442.149 8  20371288.988    20371291.294    20371288.782
        -0.90016                  24280843.205                    24280843.068
 -13394195.253 8 -10437018.252 8  21557592.494    21557594.999    21557591.616
 98  4  9  0 31  0.0000000  0  7G17G22G30G24G13G10G 6
 -10750624.621 8  -8377099.295 7  22352620.031    22352623.044    22352619.099
        -0.12716         0.49414  24192769.474    24192772.118    24192768.471
 -11538925.814 8  -8991362.486 8  21856150.509    21856153.998    21856150.719
  -1003486.568 7   -781929.957 6  23574404.850    23574408.126    23574404.417
        -0.20515                  24357459.101                    24357459.537
 -13362700.216 8 -10412476.660 8  21563585.693    21563588.325    21563584.868
 -20609490.322 9 -16059328.731 8  20367897.570    20367900.056    20367897.507
 98  4  9  0 31 30.0000000  0  6G17G22G30G24G 6G10
 -10834230.218 8  -8442246.461 7  22336709.991    22336713.572    22336709.509
    -86440.357 6    -67355.444 5  24176319.693    24176323.961    24176319.209
 -11452339.048 8  -8923892.318 8  21872627.628    21872630.920    21872627.728
   -912015.467 7   -710653.800 6  23591810.948    23591814.844    23591810.294
 -20626914.335 9 -16072905.876 8  20364581.928    20364584.340    20364581.815
 -13330601.082 8 -10387464.352 8  21569693.958    21569696.681    21569693.090
 98  4  9  0 32  0.0000000  0  8G17G22G30G24G 6G13G 5G10
 -10917553.393 8  -8507173.560 7  22320854.804    22320857.597    22320853.746
   -172548.619 6   -134452.689 5  24159934.100    24159938.104    24159933.229
 -11365364.270 8  -8856119.796 8  21889178.391    21889181.412    21889178.438
   -820446.124 7   -639301.129 6  23609235.983    23609239.906    23609235.577
 -20643929.768 9 -16086164.649 8  20361344.018    20361346.456    20361343.969
         0.00315                  24342586.781                    24342587.817
        -0.83816        -0.37515  24345657.811    24345663.068    24345656.547
 -13297896.112 8 -10361979.967 8  21575917.367    21575920.431    21575916.528
 98  4  9  0 32 30.0000000  0  7G17G22G30G24G 6G 5G10
 -11000597.063 8  -8571882.844 7  22305051.925    22305055.007    22305050.905
   -258313.762 6   -201282.555 4  24143612.972    24143617.353    24143612.324
 -11277999.129 8  -8788043.095 7  21905803.659    21905806.548    21905803.570
   -728774.550 6   -567868.779 5  23626680.437    23626684.488    23626679.628
 -20660531.713 9 -16099101.224 8  20358184.693    20358187.104    20358184.639
    113664.316 6     88569.730 6  24367287.671    24367292.964    24367286.832
 -13264589.773 8 -10336026.980 8  21582255.394    21582258.385    21582254.602
 98  4  9  0 46  0.0000000  0  6G17G22G10G13G 6G30
        -0.28618        -0.40218  21828842.678    21828845.929    21828842.006
        -0.39916        -0.49716  23659655.470    23659660.411    23659654.890
        -0.45418        -0.60318  21725083.085    21725085.902    21725082.228
        -0.35016        -0.17415  24104222.094    24104225.517    24104222.635
        -0.03619         0.42618  20233350.638    20233353.034    20233350.493
        -0.46117        -0.02517  22312369.557    22312373.530    22312369.992
 98  4  9  0 46 30.0000000  0  7G17G22G10G13G 6G30G24
    -75373.273 8    -58732.560 8  21814500.073    21814503.017    21814499.209
    -75412.291 6    -58762.927 6  23645305.617    23645309.515    23645304.812
     48941.851 8     38136.244 8  21734396.226    21734399.331    21734395.459
    -24495.203 5    -19087.021 5  24099560.263    24099564.629    24099560.719
     -5101.457 9     -3974.701 8  20232379.816    20232382.167    20232379.782
     97383.919 7     75883.856 7  22330901.255    22330904.850    22330901.714
        -0.40116        -0.22814  24050901.972    24050904.427    24050901.624
 98  4  9  0 47  0.0000000  0  6G17G22G10G13G30G 6
   -150493.103 8   -117267.448 8  21800204.761    21800208.172    21800204.314
   -150392.579 6   -117189.041 5  23631036.452    23631040.853    23631036.163
     98434.010 8     76701.555 8  21743814.275    21743817.449    21743813.613
    -48462.522 5    -37762.802 5  24094999.512    24095003.823    24094999.952
    195089.340 7    152017.888 7  22349494.226    22349497.974    22349494.597
     -9777.021 9     -7617.992 8  20231490.059    20231492.424    20231489.989
 98  4  9  0 47 30.0000000  0  6G17G22G10G13G 6G30
   -225355.895 8   -175602.048 8  21785959.097    21785962.131    21785958.347
   -224948.888 6   -175284.804 5  23616849.484    23616852.993    23616848.536
    148470.326 8    115690.887 8  21753335.980    21753338.720    21753335.221
    -71914.842 6    -56037.297 5  24090537.754    24090540.118    24090537.854
    -14017.019 9    -10921.880 8  20230683.274    20230685.639    20230683.175
    293093.671 7    228384.834 7  22368144.181    22368147.522    22368144.190
 98  4  9  0 48  0.0000000  0  7G17G22G10G13G 6G30G24
   -299957.538 8   -233733.152 8  21771762.922    21771765.838    21771762.043
   -299081.736 6   -233050.612 4  23602743.014    23602744.698    23602742.254
    199042.226 8    155097.554 7  21762959.574    21762962.237    21762958.764
    -94867.331 6    -73922.345 4  24086169.575    24086171.900    24086170.027
    -17815.749 9    -13881.924 8  20229960.412    20229962.665    20229960.213
    391404.508 7    304990.632 7  22386851.941    22386855.387    22386852.156
         0.21016         0.06214  24104210.103    24104213.704    24104209.914
 98  4  9  0 48 30.0000000  0  7G17G22G10G13G 6G30G24
   -374269.716 8   -291638.699 8  21757621.379    21757624.576    21757620.729
   -372814.148 6   -290504.389 4  23588712.073    23588714.094    23588711.300
    250149.832 8    194921.653 7  21772684.837    21772687.660    21772684.095
   -117326.482 6    -91422.976 4  24081895.630    24081897.521    24081896.025
    -21174.827 9    -16499.382 8  20229321.153    20229323.444    20229321.052
    489997.355 7    381816.181 7  22405613.491    22405616.900    22405613.657
     93451.488 6                  24121993.326                    24121992.886
 98  4  9  0 49  0.0000000  0  6G17G22G10G13G30G 6
   -448279.178 8   -349308.366 8  21743538.056    21743540.994    21743537.359
   -446157.451 7   -347654.960 5  23574755.403    23574757.892    23574754.343
    301786.973 8    235158.381 7  21782511.223    21782514.031    21782510.401
   -139269.155 6   -108521.156 4  24077719.350    24077722.456    24077719.720
    588851.777 7    458845.536 7  22424424.869    22424428.444    22424425.011
    -24108.482 9    -18785.345 8  20228763.008    20228765.198    20228762.831
 98  4  9  0 49 30.0000000  0  6G17G22G10G13G30G 6
   -521978.398 8   -406736.287 8  21729513.483    21729516.449    21729512.818
   -519120.295 7   -404509.061 5  23560870.179    23560874.121    23560869.945
    353958.038 8    275811.151 7  21792439.216    21792441.952    21792438.466
   -160684.870 6   -125208.727 4  24073644.329    24073647.525    24073644.739
    687980.962 7    536089.012 7  22443288.519    22443291.899    22443288.534
    -26625.109 9    -20746.348 8  20228284.231    20228286.279    20228284.029
 98  4  9  0 50  0.0000000  0  7G17G22G10G13G30G 6G24
   -595355.229 8   -463913.000 8  21715550.546    21715553.328    21715549.691
   -591694.698 7   -461060.479 6  23547060.567    23547063.600    23547059.396
    406660.532 8    316878.019 7  21802468.058    21802470.799    21802467.267
   -181569.629 6   -141482.508 4  24069670.158    24069673.168    24069670.626
    787399.939 7    613558.291 7  22462206.973    22462210.936    22462207.400
    -28726.075 9    -22383.460 8  20227884.369    20227886.531    20227884.224
        -0.07216                  24175379.461                    24175379.069
 98  4  9  0 50 30.0000000  0  6G17G22G10G13G30G 6
   -668401.278 8   -520831.958 8  21701650.220    21701653.263    21701649.519
   -663880.782 7   -517309.311 6  23533323.911    23533326.848    23533322.733
    459882.473 8    358349.649 7  21812595.796    21812598.660    21812594.886
   -201912.918 6   -157334.382 5  24065799.372    24065802.909    24065799.712
    887109.029 7    691253.635 7  22481180.902    22481185.302    22481181.505
    -30409.748 9    -23695.409 8  20227563.976    20227566.133    20227563.809
 98  4  9  0 51  0.0000000  0  7G17G22G 6G10G13G30G24
   -741126.627 8   -577501.020 8  21687811.009    21687814.014    21687810.141
   -735657.478 7   -573239.132 6  23519664.670    23519668.606    23519664.057
    -31664.050 9    -24672.780 8  20227325.084    20227327.352    20227325.061
    513609.684 8    400214.997 7  21822819.592    21822822.587    21822818.870
   -221725.455 6   -172772.714 4  24062028.937    24062031.889    24062029.622
    987131.080 7    769192.841 7  22500214.854    22500218.866    22500215.289
        -0.40616                  24210997.831                    24210997.693
 98  4  9  0 51 30.0000000  0  1G17
   -813533.729 8   -633922.098 8  21674032.181    21674035.371    21674031.495
 98  4  9  0 56 30.0000000  0  5G17G22G10G30G 6
        -0.99118        -0.98218  21538968.438    21538971.372    21538967.797
        -0.67916        -0.39516  23374630.873    23374634.108    23374629.617
        -0.26518        -0.40617  21941287.344    21941290.171    21941286.624
         0.11417         0.26217  22712792.226    22712795.879    22712792.308
        -0.28619        -0.42818  20229736.192    20229738.552    20229736.109
 98  4  9  0 57  0.0000000  0  7G17G22G10G13G30G24G 6
    -69168.830 8    -53897.958 8  21525806.480    21525809.059    21525805.615
    -66415.178 6    -51751.897 6  23361992.230    23361995.851    23361991.635
     59783.113 8     46584.034 7  21952663.529    21952666.664    21952662.843
        -1.17716                  24024167.371                    24024168.315
    103444.737 7     80606.390 7  22732476.917    22732480.954    22732477.232
        -1.19116                  24424689.675                    24424689.067
      3908.346 9      3045.262 8  20230480.040    20230482.264    20230479.945
 98  4  9  0 57 30.0000000  0  5G17G22G10G30G 6
   -138015.170 8   -107544.422 8  21512705.362    21512707.963    21512704.558
   -132399.590 6   -103168.253 6  23349436.086    23349439.356    23349435.151
    120026.727 8     93527.096 7  21964127.699    21964130.687    21964126.887
    207168.919 7    161430.374 7  22752215.341    22752218.392    22752215.346
      8275.622 9      6448.338 8  20231311.158    20231313.347    20231310.987
 98  4  9  0 58  0.0000000  0  7G17G22G 6G10G13G30G24
   -206544.112 8   -160943.563 8  21499664.489    21499667.262    21499663.818
   -197956.423 7   -154251.445 6  23336960.898    23336964.132    23336960.170
     13087.414 9     10197.790 8  20232226.781    20232229.030    20232226.670
    180743.956 8    140839.212 7  21975682.062    21975684.690    21975681.290
        -0.49416                  24019331.244                    24019331.590
    311152.923 7    242456.830 7  22772002.379    22772006.497    22772002.918
        -1.06516                  24460415.759                    24460415.370
 98  4  9  0 58 30.0000000  0  5G17G22G10G30G 6
   -274749.661 8   -214090.710 8  21486685.210    21486688.184    21486684.543
   -263076.717 7   -204994.466 6  23324569.556    23324572.100    23324568.254
    241932.055 8    188518.238 7  21987325.741    21987328.576    21987325.034
    415379.837 7    323672.576 7  22791836.867    22791840.257    22791836.826
     18332.879 9     14285.170 8  20233224.911    20233227.148    20233224.815
 98  4  9  0 59  0.0000000  0  7G17G22G10G13G30G24G 6
   -342640.331 8   -266992.496 8  21473766.262    21473769.057    21473765.412
   -327759.861 7   -255396.869 6  23312259.714    23312263.428    23312259.283
    303597.799 8    236569.451 7  21999060.438    21999062.993    21999059.546
        -0.26216                  24014901.998                    24014902.674
    519850.407 7    405078.166 7  22811716.669    22811720.232    22811716.879
        -0.34815                  24496182.934                    24496183.054
     24021.568 9     18717.920 8  20234307.446    20234309.776    20234307.348
 98  4  9  0 59 30.0000000  0  5G17G22G10G30G 6
   -410219.817 8   -319651.802 8  21460906.324    21460909.039    21460905.474
   -391994.127 7   -305449.476 6  23300036.424    23300039.984    23300035.849
    365771.655 8    285016.591 7  22010891.693    22010894.285    22010890.901
    624547.721 7    486660.434 7  22831639.926    22831644.049    22831639.988
     30142.436 9     23487.429 8  20235472.023    20235474.521    20235472.059
 98  4  9  1  0  0.0000000  0  6G17G22G10G13G30G 6
   -477482.322 8   -372064.110 8  21448106.742    21448109.328    21448105.917
   -455750.655 7   -355129.838 6  23287904.429    23287907.315    23287903.350
    428455.787 8    333861.362 7  22022820.176    22022822.907    22022819.372
        -0.73116                  24010903.526                    24010903.374
    729461.689 7    568411.509 7  22851603.553    22851608.344    22851604.080
     36688.514 9     28588.273 8  20236718.016    20236720.242    20236717.769
 98  4  9  1  0 30.0000000  0  6G17G22G10G30G24G 6
   -544438.243 8   -424237.525 8  21435365.338    21435368.115    21435364.623
   -519014.139 7   -404425.998 6  23275865.491    23275868.484    23275864.830
    491640.916 8    383096.513 7  22034843.585    22034846.627    22034842.939
    834587.937 7    650328.005 7  22871608.847    22871613.528    22871609.212
        -0.65715                  24549873.778                    24549874.576
     43675.134 9     34032.396 8  20238047.305    20238049.815    20238047.277
 98  4  9  1  1  0.0000000  0  5G17G22G10G30G 6
   -611094.390 8   -476177.346 8  21422681.035    21422683.855    21422680.313
   -581773.305 7   -453329.188 6  23263922.795    23263925.801    23263922.212
    555328.150 8    432722.904 7  22046963.135    22046965.738    22046962.206
    939927.124 7    732410.417 7  22891654.235    22891658.917    22891654.489
     51101.873 9     39819.469 8  20239460.669    20239462.968    20239460.511
 98  4  9  1  1 30.0000000  0  6G17G22G10G13G30G 6
   -677445.549 8   -527879.513 8  21410054.797    21410057.613    21410054.096
   -644027.609 7   -501838.981 6  23252076.403    23252079.284    23252075.559
    619497.778 8    482725.195 7  22059173.967    22059176.830    22059173.233
        -0.25616                  24005725.947                    24005726.328
   1045486.673 7    814664.537 7  22911741.833    22911746.464    22911742.235
     58964.218 9     45945.972 8  20240956.792    20240959.088    20240956.665
 98  4  9  1  2  0.0000000  0  5G17G10G22G30G 6
   -743501.497 8   -579351.649 8  21397484.853    21397487.570    21397484.100
    684118.138 8    533078.705 7  22071471.411    22071473.818    22071470.578
   -705793.162 7   -549967.930 6  23240322.408    23240325.506    23240321.743
   1151285.812 7    897105.385 7  22931874.568    22931878.918    22931875.204
     67274.697 9     52421.670 8  20242538.222    20242540.563    20242538.118
 98  4  9  1  2 30.0000000  0  6G17G10G22G13G30G 6
   -809255.938 8   -630588.844 8  21384972.015    21384974.712    21384971.231
    749194.597 8    583787.617 7  22083855.028    22083857.482    22083854.208
   -767092.974 7   -597733.966 6  23228657.590    23228660.239    23228656.795
         0.04815                  24002808.430                    24002808.867
   1257339.637 7    979744.685 7  22952055.813    22952060.700    22952056.602
     76038.022 9     59250.235 8  20244205.758    20244208.202    20244205.704
 98  4  9  1  3  0.0000000  0  6G17G10G22G30G23G 6
   -874687.965 8   -681574.805 8  21372520.787    21372523.470    21372519.974
    814730.220 8    634854.314 7  22096325.892    22096328.432    22096325.085
   -827943.269 7   -645149.730 6  23217077.802    23217080.867    23217077.215
   1363642.926 7   1062578.361 6  22972285.372    22972289.160    22972285.681
        -0.78215                  24676988.773                    24676989.061
     85257.414 9     66434.176 8  20245960.096    20245962.535    20245960.097
 98  4  9  1  3 30.0000000  0  6G17G10G22G13G30G 6
   -939796.555 8   -732308.739 8  21360131.168    21360133.672    21360130.364
    880719.664 8    686274.659 7  22108883.075    22108885.700    22108882.241
   -888354.786 7   -692223.586 6  23205581.577    23205584.833    23205581.041
        -0.51716                  24000290.510                    24000290.885
   1470187.171 7   1145599.811 6  22992559.136    22992564.111    22992560.124
     94944.231 9     73982.347 8  20247803.621    20247805.944    20247803.484
 98  4  9  1  4  0.0000000  0  6G17G10G22G30G23G 6
  -1004577.215 8   -782787.144 8  21347803.792    21347806.355    21347803.050
    947173.239 8    738056.651 7  22121528.483    22121531.293    22121527.863
   -948325.793 7   -738954.199 6  23194169.610    23194172.984    23194168.951
   1576954.136 7   1228794.806 6  23012876.846    23012881.420    23012877.533
        -1.15215        -0.98714  24635501.613    24635508.673    24635501.366
    105098.834 9     81895.025 8  20249736.074    20249738.306    20249735.880
 98  4  9  1  4 30.0000000  0  6G17G10G22G13G30G 6
  -1069022.834 8   -833004.478 8  21335539.979    21335542.787    21335539.243
   1014108.220 8    790213.768 7  22134265.724    22134268.558    22134264.914
  -1007837.166 7   -785326.637 6  23182845.034    23182848.380    23182844.467
        -0.57716                  23998164.839                    23998165.549
   1683916.466 7   1312141.999 7  23033230.927    23033235.706    23033231.937
    115716.537 9     90168.557 8  20251756.246    20251758.670    20251756.309
 98  4  9  1  5  0.0000000  0  5G17G10G22G30G 6
  -1133150.716 8   -882974.222 8  21323336.749    21323339.603    21323335.936
   1081503.964 8    842729.919 7  22147090.861    22147093.548    22147090.121
  -1066872.764 7   -831328.360 6  23171611.470    23171614.133    23171610.328
   1791057.408 7   1395628.383 7  23053620.023    23053623.797    23053620.277
    126794.768 9     98800.947 8  20253864.495    20253866.765    20253864.402
 98  4  9  1  5 30.0000000  0  7G17G10G22G13G30G23G 6
  -1196983.067 8   -932713.685 8  21311189.716    21311192.662    21311189.047
   1149352.006 8    895598.515 7  22160002.162    22160004.779    22160001.452
  -1125413.536 7   -876944.498 6  23160471.112    23160474.115    23160470.337
        -1.06816                  23996461.513                    23996461.602
   1898391.586 7   1479265.354 7  23074045.103    23074049.151    23074045.262
        -0.65716                  24573363.558                    24573362.784
    138317.853 9    107779.974 8  20256057.333    20256059.613    20256057.217
 98  4  9  1  6  0.0000000  0  5G17G10G22G30G 6
  -1260516.253 8   -982220.031 8  21299099.917    21299102.673    21299099.154
   1217649.680 8    948817.469 7  22172998.907    22173001.461    22172998.118
  -1183449.366 7   -922167.177 6  23149427.334    23149430.307    23149426.559
   2005923.213 7   1563056.170 7  23094507.959    23094511.511    23094507.973
    150281.460 9    117102.268 8  20258333.813    20258336.126    20258333.722
 98  4  9  1  6 30.0000000  0  5G17G10G22G30G 6
  -1323751.429 8  -1031494.163 8  21287066.583    21287069.371    21287065.832
   1286384.543 8   1002377.094 7  22186078.680    22186081.485    22186077.802
  -1240979.110 7   -966995.510 6  23138479.559    23138482.720    23138478.882
   2113651.678 7   1647000.367 6  23115007.567    23115011.720    23115007.941
    162687.469 9    126769.289 8  20260694.638    20260696.809    20260694.438
 98  4  9  1  7  0.0000000  0  7G17G10G22G23G30G13G 6
  -1386680.174 8  -1080529.516 8  21275091.628    21275094.499    21275090.921
   1355541.500 7   1056265.614 7  22199238.380    22199241.574    22199237.714
  -1298010.207 7  -1011435.287 6  23127627.314    23127630.072    23127626.366
        -0.19616                  24511375.464                    24511375.349
   2221594.485 7   1731111.589 6  23135548.555    23135552.257    23135549.004
        -0.99116                  23994739.669                    23994739.748
    175533.734 9    136779.366 8  20263139.312    20263141.462    20263139.076
 98  4  9  1  7 30.0000000  0  5G17G10G22G30G 6
  -1449277.712 8  -1129306.782 8  21263179.792    21263182.618    21263179.001
   1425133.375 7   1110493.021 7  22212481.239    22212484.583    22212480.669
  -1354548.264 7  -1055490.880 6  23116867.899    23116870.920    23116867.505
   2329756.745 7   1815393.819 6  23156130.600    23156134.943    23156131.252
    188816.378 9    147129.479 8  20265666.934    20265669.085    20265666.752
 98  4  9  1  8  0.0000000  0  7G17G10G22G23G30G13G 6
  -1511525.770 8  -1177811.728 8  21251334.185    21251337.105    21251333.567
   1495163.663 7   1165062.064 7  22225807.402    22225810.863    22225806.801
  -1410606.892 7  -1099172.885 6  23106200.612    23106203.319    23106199.735
         0.07916                  24470124.535                    24470123.582
   2438120.558 7   1899833.100 6  23176752.144    23176755.451    23176752.502
        -0.29616                  23994127.747                    23994127.691
    202544.489 9    157826.705 8  20268279.253    20268281.436    20268279.103
 98  4  9  1  8 30.0000000  0  5G17G10G22G30G 6
  -1573431.617 8  -1226050.020 8  21239554.027    21239556.684    21239553.329
   1565634.521 7   1219974.402 7  22239217.642    22239220.931    22239216.955
  -1466187.637 7  -1142482.525 6  23095623.887    23095626.500    23095622.996
   2546687.029 7   1984430.307 6  23197411.158    23197415.504    23197411.497
    216711.435 9    168865.885 8  20270975.055    20270977.301    20270974.928
 98  4  9  1  9  0.0000000  0  7G17G10G22G23G30G13G 6
  -1634999.067 8  -1274024.629 8  21227838.068    21227840.655    21227837.309
   1636560.366 7   1275241.267 7  22252714.623    22252717.695    22252713.908
  -1521283.785 7  -1185414.547 6  23085138.960    23085142.096    23085138.369
        -0.81115        -0.57815  24428929.516    24428935.708    24428928.047
   2655461.877 7   2069189.849 6  23218110.900    23218114.603    23218110.967
        -0.48616                  23993926.908                    23993926.965
    231314.298 9    180244.736 8  20273753.852    20273756.162    20273753.836
 98  4  9  1  9 30.0000000  0  6G17G22G10G23G30G 6
  -1696245.299 8  -1321748.935 8  21216183.172    21216185.913    21216182.465
  -1575891.793 7  -1227966.206 6  23074747.802    23074750.620    23074746.999
   1707959.861 7   1330877.211 7  22266301.724    22266304.647    22266300.907
   -108112.994 5    -84243.673 6  24408356.771    24408362.239    24408354.963
   2764428.134 7   2154098.577 6  23238846.063    23238850.408    23238846.599
    246353.643 9    191963.707 8  20276615.917    20276618.133    20276615.755
 98  4  9  1 10  0.0000000  0  7G17G22G10G23G30G13G 6
  -1757183.374 8  -1369233.122 8  21204587.103    21204589.750    21204586.287
  -1630004.744 7  -1270132.112 6  23064450.197    23064453.178    23064449.637
   1779826.535 7   1386877.189 7  22279977.589    22279980.581    22279976.807
   -216140.125 5   -168420.488 5  24387800.062    24387805.909    24387798.030
   2873581.456 7   2239153.059 6  23259617.695    23259621.850    23259618.032
         0.00315                  23994140.385                    23994141.082
    261843.557 9    204033.770 8  20279563.149    20279565.674    20279563.180
 98  4  9  1 10 30.0000000  0  6G17G10G22G23G30G 6
  -1817810.766 8  -1416475.217 8  21193050.111    21193052.635    21193049.302
   1852151.655 7   1443234.404 7  22293740.330    22293743.607    22293739.717
  -1683607.284 7  -1311900.288 6  23054250.110    23054252.966    23054249.378
   -324078.529 5   -252528.173 5  24367259.730    24367264.611    24367259.029
   2982922.293 7   2324353.636 6  23280424.474    23280428.717    23280424.830
    277788.721 9    216458.573 8  20282597.721    20282599.973    20282597.544
 98  4  9  1 11  0.0000000  0  7G17G10G22G23G30G13G 6
  -1878122.733 8  -1463471.526 8  21181573.068    21181575.565    21181572.312
   1924928.771 7   1499943.826 7  22307589.255    22307592.390    22307588.693
  -1736690.243 7  -1353263.597 6  23044149.071    23044151.686    23044148.048
   -431926.542 5   -336565.434 5  24346736.582    24346742.652    24346734.774
   3092438.305 7   2409690.735 7  23301265.039    23301269.252    23301265.294
        -0.31116                  23994773.620                    23994773.593
    294202.705 9    229248.689 8  20285721.349    20285723.449    20285721.151
 98  4  9  1 11 30.0000000  0  6G17G10G22G23G30G 6
  -1938121.538 8  -1510223.815 8  21170155.644    21170158.232    21170154.940
   1998126.089 7   1556980.680 7  22321518.344    22321521.297    22321517.655
  -1789254.565 7  -1394222.777 7  23034146.337    23034148.929    23034145.350
   -539679.390 6   -420528.535 6  24326232.817    24326237.652    24326230.716
   3202120.833 7   2495157.563 7  23322137.445    23322141.415    23322137.098
    311089.087 9    242406.912 8  20288934.443    20288936.783    20288934.320
 98  4  9  1 12  0.0000000  0  6G17G22G10G23G 6G30
  -1997787.132 8  -1556716.462 8  21158801.856    21158804.308    21158801.054
  -1841291.901 7  -1434771.317 7  23024243.564    23024246.518    23024243.009
   2071717.070 7   1614324.279 7  22335522.344    22335525.220    22335521.714
   -647323.106 6   -504406.645 6  24305748.837    24305753.492    24305747.609
    328447.352 9    255932.830 8  20292237.587    20292239.981    20292237.554
   3311971.691 7   2580755.565 6  23343040.858    23343044.501    23343041.066
 98  4  9  1 12 30.0000000  0  7G17G22G 6G10G23G30G13
  -2057119.183 8  -1602949.202 8  21147511.411    21147513.911    21147510.608
  -1892799.980 7  -1474907.448 7  23014442.361    23014444.948    23014441.313
    346258.136 9    269811.365 8  20295626.938    20295629.324    20295626.908
   2145707.663 7   1671979.268 7  22349602.632    22349605.152    22349601.848
   -754856.781 6   -588198.997 6  24285285.602    24285290.239    24285284.678
   3421983.340 6   2666478.853 6  23363975.041    23363979.699    23363975.123
        -0.41315                  23996513.151                    23996513.333
 98  4  9  1 13  0.0000000  0  7G17G22G 6G10G23G30G26
  -2116127.031 8  -1648929.320 8  21136282.234    21136284.903    21136281.573
  -1943786.658 7  -1514637.293 7  23004739.546    23004742.632    23004738.871
    364510.418 9    284033.922 8  20299100.404    20299102.610    20299100.170
   2220090.435 7   1729939.854 7  22363757.336    22363759.839    22363756.592
   -862273.848 6   -671900.529 5  24264844.055    24264849.285    24264843.457
   3532150.368 7   2752323.221 6  23384940.164    23384943.578    23384940.215
        -0.96016                  24415783.884                    24415784.133
 98  4  9  1 13 30.0000000  0  7G17G22G 6G10G23G30G13
  -2174794.665 8  -1694644.332 8  21125118.229    21125120.714    21125117.401
  -1994254.860 7  -1553963.133 7  22995136.083    22995138.773    22995134.980
    383196.642 9    298594.616 8  20302656.203    20302658.477    20302656.084
   2294862.632 7   1788203.883 7  22377985.810    22377988.580    22377985.017
   -969567.923 6   -755506.185 5  24244426.715    24244432.183    24244425.808
   3642484.304 7   2838297.647 6  23405934.813    23405939.625    23405935.309
        -0.12815                  23998205.297                    23998205.808
 98  4  9  1 14  0.0000000  0  7G17G22G 6G10G23G30G26
  -2233115.744 8  -1740089.306 8  21114020.073    21114022.693    21114019.307
  -2044206.366 7  -1592886.344 7  22985630.286    22985633.256    22985629.428
    402316.709 9    313493.367 8  20306294.590    20306296.882    20306294.497
   2370045.834 7   1846788.176 7  22392292.244    22392295.384    22392291.572
  -1076751.102 6   -839025.441 5  24224030.836    24224034.877    24224029.907
   3752980.669 7   2924398.650 6  23426961.970    23426966.767    23426962.563
        -0.08616                  24380647.814                    24380648.068
 98  4  9  1 14 30.0000000  0  7G17G22G 6G10G23G30G13
  -2291109.469 8  -1785279.196 8  21102984.096    21102986.772    21102983.403
  -2093651.648 7  -1631415.099 7  22976221.305    22976224.341    22976220.298
    421880.435 9    328737.830 8  20310017.342    20310019.706    20310017.242
   2445635.663 7   1905689.322 7  22406676.611    22406679.765    22406675.915
  -1183825.850 6   -922460.224 4  24203654.726    24203657.672    24203654.088
   3863636.882 7   3010624.208 6  23448018.524    23448023.980    23448019.283
         0.12515                  24000328.295                    24000328.578
 98  4  9  1 15  0.0000000  0  6G17G22G10G30G26G 6
  -2348780.673 8  -1830217.771 8  21092009.718    21092012.418    21092008.950
  -2142593.818 7  -1669551.814 7  22966907.556    22966910.588    22966906.695
   2521617.607 7   1964895.994 7  22421135.413    22421138.648    22421134.770
   3974461.388 7   3096980.904 6  23469107.636    23469112.795    23469108.837
        -0.39015        -0.62415  24345630.906    24345636.519    24345630.548
    441904.243 9    344340.793 8  20313827.817    20313830.092    20313827.649
 98  4  9  1 15 30.0000000  0  7G17G22G 6G10G23G30G26
  -2406124.963 8  -1874901.613 8  21081097.514    21081100.020    21081096.715
  -2191038.415 7  -1707300.819 7  22957689.128    22957691.875    22957688.006
    462402.296 9    360313.301 8  20317728.362    20317730.686    20317728.387
   2598004.644 7   2024418.341 7  22435671.718    22435674.957    22435670.930
        -1.18916                  24162968.585                    24162967.436
   4085447.839 7   3183463.786 6  23490228.384    23490233.230    23490228.767
    -91755.273 5    -71497.779 5  24328170.415    24328175.700    24328170.521
 98  4  9  1 16  0.0000000  0  7G17G22G 6G10G30G13G26
  -2463158.199 8  -1919343.069 8  21070244.365    21070247.059    21070243.676
  -2238987.306 7  -1744663.565 7  22948564.433    22948567.457    22948563.734
    483381.521 9    376660.747 8  20321720.696    20321722.893    20321720.589
   2674801.047 7   2084259.666 7  22450285.603    22450288.636    22450284.825
   4196573.185 7   3270054.894 6  23511375.277    23511379.609    23511375.462
        -0.31515                  24004314.398                    24004314.533
   -183340.878 5   -142862.998 5  24310742.425    24310746.876    24310742.185
 98  4  9  1 16 30.0000000  0  7G17G22G 6G10G23G30G26
  -2519882.451 8  -1963543.760 8  21059450.037    21059452.731    21059449.269
  -2286428.012 7  -1781630.315 7  22939536.798    22939539.798    22939536.186
    504833.181 9    393376.323 8  20325802.710    20325805.065    20325802.699
   2752004.548 7   2144418.225 7  22464976.903    22464980.108    22464976.099
        -0.32916                  24122372.228                    24122371.669
   4307843.955 7   3356759.315 6  23532549.600    23532554.061    23532549.475
   -274759.493 5   -214098.133 6  24293345.920    24293350.327    24293345.834
 98  4  9  1 17  0.0000000  0  7G17G22G 6G10G30G13G26
  -2576275.323 8  -2007486.234 8  21048718.755    21048721.524    21048718.051
  -2333349.735 7  -1818192.666 7  22930607.989    22930610.955    22930607.158
    526748.477 9    410453.175 8  20329973.233    20329975.393    20329973.047
   2829638.539 7   2204912.227 7  22479750.534    22479753.288    22479749.682
   4419256.737 6   3443574.392 6  23553750.418    23553755.091    23553750.633
        -0.55916                  24007498.602                    24007498.748
   -366022.369 4   -285211.887 5  24275978.102    24275984.772    24275978.086
 98  4  9  1 17 30.0000000  0  7G17G22G 6G10G23G30G26
  -2632325.165 8  -2051161.410 8  21038052.920    21038055.398    21038052.110
  -2379747.350 7  -1854346.616 7  22921778.550    22921781.591    22921777.776
    549116.313 9    427882.651 8  20334229.759    20334231.956    20334229.585
   2907700.724 7   2265739.884 7  22494605.179    22494608.301    22494604.522
        -0.64515                  24081866.655                    24081867.130
   4530803.965 7   3530494.218 6  23574977.063    23574981.913    23574977.837
   -457143.183 5   -356214.934 6  24258638.656    24258644.020    24258639.026
 98  4  9  1 18  0.0000000  0  7G17G22G 6G10G30G13G26
  -2688030.394 8  -2094568.057 8  21027452.677    21027455.075    21027451.848
  -2425596.884 7  -1890073.498 7  22913053.791    22913056.673    22913053.025
    571914.303 9    445647.316 8  20338568.019    20338570.265    20338567.879
   2986176.282 7   2326889.644 7  22509538.590    22509541.569    22509537.814
   4642499.575 6   3617529.702 6  23596231.751    23596236.908    23596232.686
         0.06616                  24011105.330                    24011105.465
   -548131.868 5   -427115.046 6  24241323.176    24241329.035    24241323.416
 98  4  9  1 18 30.0000000  0  7G17G22G 6G10G23G30G26
  -2743388.419 8  -2137704.160 8  21016918.304    21016920.775    21016917.462
  -2470897.475 7  -1925372.625 7  22904433.256    22904436.324    22904432.574
    595132.226 9    463739.199 8  20342986.272    20342988.456    20342986.082
   3065050.982 7   2388350.429 7  22524548.122    22524550.936    22524547.174
        -1.04916        -0.54616  24041449.596    24041454.171    24041449.021
   4754356.051 7   3704690.536 5  23617518.501    23617522.206    23617518.479
   -638975.075 6   -497901.795 6  24224036.816    24224042.104    24224037.059
 98  4  9  1 19  0.0000000  0  8G17G22G 6G10G23G30G13G26
  -2798392.005 8  -2180564.074 8  21006451.297    21006453.938    21006450.644
  -2515653.471 7  -1960247.403 7  22895916.550    22895919.308    22895915.768
    618787.811 9    482172.117 8  20347487.499    20347490.036    20347487.495
   3144305.731 7   2450107.350 7  22539629.634    22539632.520    22539628.857
   -106031.646 6    -82621.627 6  24021272.691    24021277.319    24021271.751
   4866363.564 6   3791969.060 5  23638832.653    23638836.632    23638832.796
        -0.19915                  24015145.832                    24015145.967
   -729656.694 6   -568562.648 6  24206780.459    24206785.471    24206780.605
 98  4  9  1 19 30.0000000  0  7G17G22G 6G10G23G30G26
  -2853053.981 8  -2223157.797 8  20996049.518    20996052.005    20996048.827
  -2559866.712 7  -1994699.247 7  22887503.152    22887505.749    22887502.252
    642886.843 9    500950.582 8  20352073.497    20352075.980    20352073.489
   3223912.796 7   2512138.805 7  22554778.199    22554781.288    22554777.471
   -211929.760 6   -165139.511 6  24001120.342    24001125.503    24001119.989
   4978515.021 6   3879359.744 4  23660174.176    23660176.883    23660174.311
   -820163.190 6   -639087.046 6  24189557.996    24189562.959    24189558.444
 98  4  9  1 20  0.0000000  0  8G17G22G 6G10G23G30G13G26
  -2907388.146 8  -2265496.087 8  20985710.174    20985712.551    20985709.383
  -2603532.128 7  -2028724.224 7  22879193.803    22879196.491    22879193.087
    667445.868 9    520087.479 8  20356747.064    20356749.334    20356746.872
   3303874.795 7   2574446.824 7  22569994.766    22569997.533    22569993.974
   -317683.122 7   -247544.565 6  23980996.697    23981001.404    23980996.036
   5090805.137 6   3966858.501 5  23681541.458    23681546.274    23681542.081
         0.23316                  24019632.924                    24019633.730
   -910475.822 6   -709460.381 6  24172371.355    24172376.981    24172371.586
 98  4  9  1 20 30.0000000  4  2
reported antenna slant height= 0.012 m                      COMMENT
GSC                                                         COMMENT
 98  4  9  1 20 30.0000000  0  7G22G10G23G30G17G 6G26
  -2646668.466 7  -2062336.927 7  22870985.235    22870987.790    22870984.417
   3384190.476 7   2637030.451 7  22585278.446    22585281.317    22585277.575
   -423276.778 6   -329825.199 6  23960902.843    23960907.292    23960901.700
   5203220.381 6   4054454.706 6  23702933.623    23702938.676    23702933.764
  -2961398.022 8  -2307581.687 8  20975432.186    20975434.802    20975431.544
    692494.183 9    539605.641 8  20361513.597    20361515.821    20361513.368
  -1000580.201 6   -779671.447 6  24155225.501    24155230.515    24155225.451
 98  4  9  1 21  0.0000000  0  7G22G10G23G17G 6G30G26
  -2689277.660 7  -2095538.874 7  22862876.633    22862879.605    22862876.195
   3464864.377 7   2699893.201 7  22600629.865    22600632.967    22600629.151
   -528711.661 6   -411982.100 6  23940837.730    23940843.589    23940837.760
  -3015081.149 8  -2349412.676 8  20965216.683    20965219.271    20965215.942
    718046.301 9    559516.375 8  20366375.944    20366378.202    20366375.823
   5315752.374 6   4142141.873 6  23724349.011    23724353.737    23724348.423
  -1090488.859 6   -849730.017 6  24138116.549    24138121.310    24138116.705
 98  4  9  1 21 30.0000000  0  7G17G22G 6G10G23G30G26
  -3068443.908 8  -2390994.026 8  20955062.195    20955064.586    20955061.395
  -2731365.989 7  -2128334.947 7  22854867.959    22854870.402    22854866.959
    744093.456 9    579812.856 8  20371332.841    20371334.892    20371332.627
   3545907.611 7   2763043.747 7  22616051.997    22616055.100    22616051.246
   -633998.999 6   -494024.039 6  23920803.908    23920808.187    23920802.692
   5428398.341 6   4229917.868 6  23745784.141    23745789.221    23745784.449
  -1180209.119 6   -919641.777 6  24121043.726    24121047.202    24121043.542
 98  4  9  1 22  0.0000000  0  8G17G22G 6G10G23G30G13G26
  -3121484.057 8  -2432323.995 8  20944968.838    20944971.361    20944968.113
  -2772935.090 7  -2160726.434 7  22846957.060    22846960.161    22846956.423
    770627.076 9    600488.398 8  20376381.808    20376384.079    20376381.698
   3627337.830 7   2826495.830 7  22631547.607    22631550.718    22631546.749
   -739153.233 6   -575962.263 6  23900792.927    23900797.990    23900791.931
   5541158.381 6   4317782.731 6  23767241.425    23767247.023    23767241.935
        -0.41916                  24029882.974                    24029883.297
  -1269733.481 6   -989400.884 5  24104006.997    24104011.866    24104007.537
 98  4  9  1 22 30.0000000  0  7G17G22G 6G10G23G30G26
  -3174184.778 8  -2473389.474 8  20934940.150    20934942.773    20934939.427
  -2813980.283 7  -2192709.664 7  22839146.273    22839149.546    22839145.705
    797625.780 9    621526.343 8  20381519.504    20381521.744    20381519.369
   3709154.983 7   2890249.429 7  22647116.634    22647119.918    22647116.096
   -844183.419 6   -657803.839 6  23880805.381    23880810.970    23880805.030
   5654026.944 7   4405732.178 6  23788720.026    23788724.913    23788720.542
  -1359064.416 6                  24087007.615                    24087007.992
 98  4  9  1 23  0.0000000  0  7G22G10G23G17G 6G30G13
  -2854487.574 7  -2224273.759 7  22831438.092    22831440.991    22831437.462
   3791361.790 7   2954306.648 7  22662760.372    22662763.295    22662759.482
   -949099.049 6   -739556.122 6  23860841.514    23860846.111    23860840.922
  -3226537.786 8  -2514184.005 8  20924977.630    20924980.384    20924977.070
    825062.466 9    642905.573 8  20386740.389    20386742.793    20386740.384
   5766994.661 7   4493758.893 6  23810217.025    23810222.076    23810217.703
        -0.92216                  24035609.702                    24035609.663
 98  4  9  1 23 30.0000000  0  6G22G10G17G 6G23G30
  -2894445.493 7  -2255409.778 7  22823834.165    22823837.304    22823833.694
   3873954.327 7   3018664.429 7  22678477.320    22678480.455    22678476.553
  -3278540.065 8  -2554705.244 8  20915082.335    20915084.705    20915081.502
    852918.071 9    664611.236 8  20392041.194    20392043.559    20392041.097
  -1053887.324 6   -821209.196 6  23840900.181    23840905.623    23840899.944
   5880057.944 7   4581860.076 6  23831733.182    23831737.011    23831733.119
 98  4  9  1 24  0.0000000  0  7G17G22G 6G10G23G30G26
  -3330187.373 8  -2594949.881 8  20905253.772    20905256.404    20905253.115
  -2933844.713 7  -2286110.440 7  22816336.878    22816339.798    22816336.057
    881191.591 9    686642.545 8  20397421.688    20397423.804    20397421.499
   3956923.881 7   3083315.995 7  22694265.557    22694268.935    22694264.963
  -1158532.736 6   -902750.970 5  23820987.097    23820992.149    23820987.041
   5993217.184 7   4670036.034 6  23853266.519    23853271.107    23853266.685
        -0.39516                  24036241.505                    24036241.999
 98  4  9  1 24 30.0000000  0  7G17G22G 6G10G23G30G13
  -3381476.616 8  -2634915.509 8  20895493.848    20895496.387    20895493.167
  -2972682.590 7  -2316373.690 7  22808946.500    22808949.304    22808945.541
    909898.809 9    709011.804 8  20402884.374    20402886.646    20402884.275
   4040250.127 7   3148245.501 7  22710122.226    22710125.142    22710121.342
  -1263027.470 6   -984175.321 6  23801102.183    23801107.451    23801101.726
   6106471.221 7   4758285.847 6  23874818.120    23874822.142    23874818.142
        -0.87815                  24044982.010                    24044981.845
 98  4  9  1 25  0.0000000  0  7G17G22G 6G10G23G30G26
  -3432411.691 8  -2674605.161 8  20885801.356    20885803.851    20885800.587
  -3010971.863 7  -2346209.467 7  22801660.140    22801663.226    22801659.400
    939060.646 9    731735.308 8  20408433.673    20408435.971    20408433.538
   4123925.146 7   3213446.784 7  22726045.199    22726048.115    22726044.346
  -1367364.461 6  -1065476.773 6  23781248.475    23781252.272    23781247.107
   6219822.717 7   4846611.615 6  23896388.350    23896392.570    23896388.436
        -0.48015                  24002599.345                    24002598.950
 98  4  9  1 25 30.0000000  0  7G17G22G 6G10G23G30G13
  -3483004.294 8  -2714027.953 8  20876173.722    20876176.290    20876172.975
  -3048723.407 7  -2375626.220 7  22794475.972    22794479.357    22794475.596
    968691.639 9    754824.385 8  20414072.151    20414074.528    20414072.006
   4207942.996 7   3278915.218 7  22742033.004    22742036.215    22742032.302
  -1471527.616 6  -1146642.746 6  23761426.385    23761430.772    23761425.525
   6333282.497 6   4935021.745 6  23917977.990    23917983.088    23917978.899
        -0.34416                  24051783.940                    24051784.026
 98  4  9  1 26  0.0000000  0  7G17G22G 6G10G23G30G26
  -3533263.230 8  -2753190.745 8  20866609.902    20866612.217    20866608.998
  -3085938.889 7  -2404625.270 7  22787394.823    22787397.558    22787393.794
    998802.625 9    778287.485 8  20419802.040    20419804.438    20419801.970
   4292303.766 7   3344650.841 7  22758086.580    22758089.771    22758085.873
  -1575526.362 6  -1227680.617 6  23741635.610    23741640.265    23741634.867
   6446852.485 6   5023517.765 6  23939588.917    23939594.646    23939590.328
        -0.71716        -0.24414  23969121.491    23969125.329    23969121.605
 98  4  9  1 26 30.0000000  0  8G17G22G 6G10G23G30G13G26
  -3583196.727 8  -2792099.950 8  20857107.719    20857110.189    20857107.014
  -3122619.854 7  -2433207.818 7  22780414.393    22780417.316    22780413.495
   1029389.947 9    802121.759 8  20425622.685    20425624.995    20425622.521
   4377010.620 7   3410656.138 7  22774205.795    22774208.889    22774205.160
  -1679363.503 6  -1308592.570 6  23721875.736    23721880.312    23721875.302
   6560528.112 6   5112096.066 6  23961221.439    23961226.652    23961222.093
        -0.25515                  24059019.193                    24059019.734
    -87628.103 6    -68281.220 5  23952446.064    23952450.866    23952446.191
 98  4  9  1 27  0.0000000  0  7G17G22G 6G10G23G30G26
  -3632811.855 8  -2830761.069 8  20847666.368    20847668.810    20847665.684
  -3158770.223 7  -2461376.907 7  22773534.507    22773538.246    22773534.234
   1060435.653 9    826313.211 8  20431530.560    20431532.798    20431530.422
   4462074.986 7   3476940.023 7  22790393.508    22790396.264    22790392.653
  -1783026.456 6  -1389368.763 6  23702149.450    23702153.854    23702148.543
   6674305.880 6   5200753.988 6  23982874.027    23982877.737    23982874.025
   -175009.905 6   -136370.851 5  23935818.627    23935821.642    23935818.604
 98  4  9  1 27 30.0000000  0  8G17G22G 6G10G23G30G13G26
  -3682110.030 8  -2869175.219 8  20838285.296    20838287.606    20838284.575
  -3194377.746 7  -2489123.002 7  22766759.148    22766762.193    22766758.354
   1091924.466 9    850849.944 8  20437522.770    20437524.990    20437522.595
   4547502.705 7   3543507.043 7  22806649.349    22806652.621    22806648.674
  -1886510.416 6  -1470005.512 6  23682456.370    23682461.720    23682456.410
   6788177.644 6   5289485.141 6  24004543.843    24004547.353    24004543.757
        -0.73116                  24066670.671                    24066671.149
   -262142.141 6   -204265.976 5  23919237.109    23919242.104    23919237.592
 98  4  9  1 39  0.0000000  0  6G23G17G22G 6G10G13
        -0.66717        -0.50416  23239208.120    23239211.785    23239207.085
         0.14819        -0.20418  20641030.233    20641032.621    20641029.461
        -0.46817         0.09117  22640643.711    22640646.254    22640642.981
        -0.02118         0.18618  20599560.109    20599562.470    20599559.947
         0.24417         0.41616  23197561.820    23197565.972    23197561.149
        -0.14716        -0.05514  24184826.654    24184828.315    24184826.793
 98  4  9  1 39 30.0000000  0  7G23G17G26G22G 6G10G30
    -98967.648 7    -77117.559 6  23220375.108    23220378.481    23220374.436
    -40890.174 9    -31862.781 8  20633249.004    20633251.476    20633248.316
        -1.07616        -0.37416  23536085.106    23536089.959    23536085.231
    -21982.923 7    -17129.084 7  22636460.635    22636463.331    22636459.770
     42563.649 8     33166.672 8  20607659.674    20607662.183    20607659.604
     92870.871 7     72367.116 6  23215234.856    23215238.463    23215234.045
        -1.16616                  24528136.332                    24528136.942
 98  4  9  1 40  0.0000000  0  7G23G26G22G10G13G17G 6
   -197678.049 7   -154034.707 6  23201590.951    23201594.771    23201590.281
    -80293.042 6    -62565.469 6  23520806.115    23520810.177    23520806.060
    -43383.297 7    -33804.689 7  22632388.043    22632390.818    22632387.221
    186014.883 7    144946.833 6  23232959.692    23232963.361    23232958.767
         0.12816                  24197666.915                    24197667.153
    -81423.160 9    -63446.916 8  20625535.944    20625538.355    20625535.207
     85563.431 8     66672.983 8  20615842.367    20615844.754    20615842.142
 98  4  9  1 40 30.0000000  0  6G23G26G22G10G17G 6
   -296125.351 7   -230746.799 6  23182857.281    23182860.745    23182856.432
   -160257.800 6   -124875.605 5  23505589.363    23505593.254    23505589.756
    -64206.409 7    -50030.473 7  22628425.183    22628428.313    22628424.560
    279443.183 7    217748.076 6  23250738.435    23250742.291    23250737.741
   -121605.455 9    -94757.783 8  20617889.372    20617891.846    20617888.757
    128997.322 8    100517.561 8  20624107.473    20624109.899    20624107.429
 98  4  9  1 41  0.0000000  0  6G23G17G26G22G 6G10
   -394313.652 7   -307257.103 6  23164172.017    23164175.969    23164171.440
   -161438.293 9   -125796.346 8  20610309.487    20610311.736    20610308.781
   -239889.906 6   -186926.514 5  23490436.448    23490439.591    23490436.485
    -84462.130 7    -65814.136 7  22624570.726    22624573.609    22624569.992
    172850.939 8    134689.199 8  20632452.466    20632455.015    20632452.512
    373165.498 7    290778.405 6  23268573.369    23268577.022    23268572.373
 98  4  9  1 41 30.0000000  0  8G23G17G26G22G 6G10G13G30
   -492257.014 7   -383576.535 7  23145534.281    23145537.994    23145533.692
   -200924.880 9   -156565.109 8  20602795.549    20602797.657    20602794.721
   -319206.216 6   -248731.369 5  23475342.694    23475346.058    23475342.686
   -104173.138 7    -81173.350 7  22620819.797    22620822.748    22620818.961
    217121.873 8    169186.018 8  20640877.028    20640879.380    20640876.916
    467185.196 7    364040.466 6  23286464.728    23286467.984    23286464.105
        -0.16516         0.41114  24217695.198    24217697.484    24217695.428
        -0.39016                  24615751.466                    24615751.624
 98  4  9  1 42  0.0000000  0  7G23G17G26G22G 6G10G13
   -589957.558 7   -459706.744 7  23126942.361    23126946.531    23126941.609
   -240065.708 9   -187064.450 8  20595347.086    20595349.421    20595346.373
   -398226.344 6   -310305.459 4  23460305.161    23460307.818    23460305.654
   -123334.277 7    -96104.096 7  22617173.609    22617176.439    22617172.845
    261823.665 8    204018.568 8  20649383.392    20649385.843    20649383.339
    561497.904 7    437530.880 6  23304412.092    23304415.023    23304411.349
     36143.359 6     28164.175 4  24224573.453    24224575.378    24224573.588
 98  4  9  1 42 30.0000000  0  8G23G17G26G22G 6G10G13G30
   -687420.428 7   -535651.757 7  23108396.036    23108399.566    23108395.102
   -278848.883 9   -217285.096 8  20587966.727    20587969.103    20587966.071
   -476956.550 6   -371653.597 5  23445324.007    23445326.197    23445324.012
   -141933.669 7   -110597.123 7  22613634.348    22613637.068    22613633.626
    306975.427 8    239201.745 8  20657975.561    20657977.972    20657975.511
    656083.603 7    511233.988 6  23322411.245    23322414.173    23322410.227
     72827.225 6     56749.026 4  24231553.551    24231555.886    24231554.011
        -1.15716                  24659576.417                    24659576.568
 98  4  9  1 43  0.0000000  0  6G23G26G22G10G17G 6
   -784657.566 7   -611420.871 7  23089891.910    23089896.168    23089891.261
   -555395.297 6   -432774.625 5  23430397.140    23430400.911    23430397.307
   -159949.312 7   -124635.283 7  22610206.059    22610208.786    22610205.311
    750925.151 7    585136.438 6  23340458.357    23340461.797    23340457.888
   -317259.835 9   -247215.698 8  20580657.490    20580659.797    20580656.806
    352584.660 8    274741.394 8  20666654.704    20666657.065    20666654.557
 98  4  9  1 43 30.0000000  0  7G23G17G26G22G 6G10G30
   -881668.568 7   -687013.784 7  23071431.079    23071435.417    23071430.359
   -355298.435 9   -276856.156 8  20573419.203    20573421.480    20573418.375
   -633529.313 6   -493658.221 5  23415528.738    23415531.977    23415528.787
   -177373.714 7   -138212.732 7  22606890.460    22606893.047    22606889.596
    398667.596 8    310650.161 8  20675424.059    20675426.445    20675423.913
    846012.959 7    659230.812 6  23358553.243    23358556.619    23358552.486
         0.03216                  24703406.791                    24703406.909
 98  4  9  1 44  0.0000000  0  7G23G17G26G22G 6G10G13
   -978453.317 7   -762430.390 7  23053013.821    23053017.817    23053013.041
   -392957.159 9   -306200.605 8  20566252.829    20566255.159    20566252.080
   -711321.370 6   -554275.349 5  23400725.492    23400729.012    23400725.484
   -194193.393 7   -151318.963 7  22603689.491    22603692.337    22603688.655
    445227.754 8    346930.793 8  20684284.226    20684286.565    20684284.113
    941344.519 6    733515.114 6  23376694.420    23376697.877    23376693.487
         0.14615         0.36514  24253115.736    24253118.942    24253115.876
 98  4  9  1 44 30.0000000  0  8G23G17G26G22G 6G10G13G30
  -1075035.888 7   -837689.460 7  23034634.502    23034638.657    23034633.798
   -430238.515 9   -335251.001 8  20559158.355    20559160.727    20559157.633
   -788748.848 6   -614608.368 6  23385991.150    23385995.012    23385991.362
   -210410.256 7   -163955.473 7  22600603.832    22600606.337    22600602.814
    492262.470 8    383581.207 8  20693234.635    20693236.940    20693234.369
   1036912.039 6    807983.262 6  23394880.502    23394883.484    23394879.456
     38841.618 6     30266.473 4  24260506.691    24260509.931    24260506.985
         0.09815                  24747244.431                    24747243.787
 98  4  9  1 45  0.0000000  0  7G23G26G22G10G13G17G 6
  -1171424.497 7   -912797.399 7  23016292.544    23016296.196    23016291.730
   -865801.857 6   -674649.615 6  23371328.582    23371332.333    23371328.421
   -226041.459 7   -176135.619 7  22597629.070    22597631.977    22597628.407
   1132727.808 6    882644.863 6  23413113.334    23413117.041    23413112.544
     78189.028 6     60926.795 5  24267994.578    24267998.023    24267995.048
   -467166.019 9   -364025.667 8  20552131.243    20552133.668    20552130.530
    539755.370 8    420588.650 8  20702272.047    20702274.623    20702272.029
 98  4  9  1 45 30.0000000  0  7G23G26G22G10G13G17G 6
  -1267614.358 7   -987750.470 7  22997987.847    22997992.191    22997987.452
   -942470.416 6   -734391.272 6  23356739.148    23356742.392    23356739.330
   -241112.956 7   -187879.638 7  22594761.461    22594763.956    22594760.487
   1228800.995 6    957507.059 6  23431394.807    23431398.875    23431394.354
    118026.854 6     91969.262 5  24275575.296    24275578.390    24275575.679
   -503752.322 9   -392534.464 8  20545169.193    20545171.498    20545168.435
    587698.324 8    457946.779 8  20711395.518    20711397.931    20711395.394
 98  4  9  1 46  0.0000000  0  7G23G26G22G10G13G17G 6
  -1363596.688 7  -1062541.846 7  22979723.253    22979727.049    22979722.768
  -1018766.891 6   -793842.978 6  23342220.257    23342223.596    23342220.442
   -255617.280 7   -199181.705 7  22592001.054    22592003.772    22592000.514
   1325128.792 6   1032567.658 6  23449725.525    23449729.839    23449725.021
    158364.709 6    123401.310 4  24283251.625    24283254.782    24283251.998
   -539993.094 9   -420774.017 8  20538272.787    20538275.128    20538272.066
    636082.021 8    495648.347 8  20720602.575    20720605.073    20720602.480
 98  4  9  1 46 30.0000000  0  7G23G26G22G10G13G17G 6
  -1459355.720 7  -1137159.205 7  22961500.606    22961504.784    22961500.232
  -1094713.986 6   -853022.459 6  23327768.150    23327771.350    23327768.099
   -269558.061 7   -210044.643 7  22589348.473    22589350.856    22589347.491
   1421710.337 6   1107825.956 6  23468105.214    23468108.570    23468104.121
    199214.391 6    155232.253 5  24291025.214    24291027.877    24291025.804
   -575889.761 9   -448745.435 8  20531441.802    20531444.167    20531441.091
    684902.001 8    533689.873 8  20729892.657    20729895.205    20729892.629
 98  4  9  1 47  0.0000000  0  7G23G26G22G10G13G17G 6
  -1554853.172 7  -1211572.755 7  22943328.285    22943332.143    22943327.670
  -1170313.698 6   -911931.253 6  23313381.427    23313385.332    23313381.721
   -282926.227 7   -220461.390 7  22586803.993    22586806.821    22586803.399
   1518547.491 6   1183283.473 6  23486532.509    23486536.203    23486532.079
    240576.038 6    187462.128 5  24298896.105    24298899.046    24298896.521
   -611440.110 9   -476446.994 8  20524676.927    20524679.160    20524676.142
    734148.130 8    572063.463 8  20739264.067    20739266.495    20739263.937
 98  4  9  1 47 30.0000000  0  7G23G26G22G10G13G17G 6
  -1650070.041 7  -1285767.643 7  22925208.851    22925212.759    22925208.304
  -1245566.768 6   -970569.935 6  23299061.066    23299065.031    23299061.367
   -295697.976 7   -230413.391 7  22584373.561    22584376.537    22584372.827
   1615625.806 6   1258928.884 6  23505006.240    23505009.953    23505005.457
    282468.555 5    220105.693 5  24306867.318    24306870.543    24306868.023
   -646618.790 9   -503858.940 8  20517982.556    20517984.843    20517981.820
    783825.759 8    610773.285 8  20748717.305    20748719.721    20748717.304
 98  4  9  1 48  0.0000000  0  7G23G26G22G10G13G17G 6
  -1745003.237 7  -1359741.502 7  22907143.994    22907147.876    22907143.249
  -1320475.329 7  -1028940.168 7  23284806.898    23284810.754    23284807.077
   -307851.483 7   -239883.656 7  22582061.193    22582063.736    22582060.172
   1712938.539 6   1334756.973 6  23523524.201    23523527.670    23523523.652
    324900.805 5    253169.817 5  24314942.073    24314945.541    24314942.400
   -681410.455 9   -530969.317 8  20511361.945    20511364.141    20511361.246
    833940.692 8    649823.871 8  20758254.011    20758256.361    20758253.827
 98  4  9  1 48 30.0000000  0  7G23G26G22G10G13G17G 6
  -1839668.655 7  -1433506.685 7  22889129.382    22889133.160    22889128.491
  -1395031.995 7  -1087036.187 7  23270618.959    23270622.914    23270619.136
   -319395.946 7   -248879.331 7  22579863.926    22579867.084    22579863.472
   1810487.549 6   1410769.171 6  23542087.098    23542090.804    23542086.315
    367865.680 5    286649.018 5  24323117.434    24323121.804    24323117.953
   -715815.184 9   -557778.184 8  20504815.046    20504817.192    20504814.243
    884510.674 8    689229.039 8  20767877.186    20767879.446    20767877.011
 98  4  9  1 49  0.0000000  0  7G23G26G22G10G13G17G 6
  -1934083.784 7  -1507076.865 7  22871162.758    22871166.752    22871162.285
  -1469222.217 7  -1144846.689 7  23256501.203    23256505.042    23256501.368
   -330335.913 7   -257403.976 7  22577782.866    22577785.154    22577781.787
   1908269.278 6   1486962.685 6  23560694.541    23560697.839    23560693.771
    411361.736 5    320542.092 5  24331394.929    24331397.876    24331395.199
   -749837.059 9   -584288.723 8  20498340.868    20498343.096    20498340.130
    935545.271 8    728996.237 8  20777588.703    20777591.006    20777588.537
 98  4  9  1 49 30.0000000  0  7G23G26G22G10G13G17G 6
  -2028274.164 7  -1580471.902 7  22853238.781    22853242.449    22853238.284
  -1543042.612 7  -1202369.000 6  23242453.799    23242457.150    23242453.916
   -340694.689 7   -265475.742 7  22575811.278    22575813.805    22575810.496
   2006285.074 6   1563338.592 6  23579345.869    23579349.611    23579345.385
    455383.818 5    354845.080 5  24339772.132    24339775.609    24339772.717
   -783472.900 9   -610498.461 8  20491940.118    20491942.336    20491939.358
    987058.348 8    769136.285 8  20787391.034    20787393.631    20787391.127
 98  4  9  1 50  0.0000000  0  7G23G26G22G10G13G17G 6
  -2122245.084 7  -1653695.952 7  22835357.228    22835360.516    22835356.135
  -1616485.582 7  -1259597.223 7  23228478.128    23228481.637    23228478.249
   -350496.108 7   -273113.202 7  22573946.495    22573948.621    22573945.355
   2104540.090 7   1639900.904 6  23598043.666    23598046.856    23598043.006
    499917.632 5    389546.835 5  24348246.226    24348249.866    24348246.529
   -816745.573 9   -636425.208 9  20485608.613    20485610.786    20485607.762
   1039045.410 8    809645.670 8  20797283.952    20797286.417    20797283.826
 98  4  9  1 50 30.0000000  0  7G23G26G22G10G13G17G 6
  -2215991.108 7  -1726744.750 7  22817517.300    22817521.127    22817516.730
  -1689543.342 7  -1316525.273 6  23214575.227    23214579.057    23214575.440
   -359752.357 7   -280325.857 7  22572184.918    22572187.189    22572184.118
   2203031.935 6   1716647.773 6  23616785.886    23616789.419    23616784.704
    544958.070 5    424643.286 4  24356817.645    24356820.357    24356817.867
   -849682.689 9   -662090.484 9  20479340.679    20479343.018    20479340.015
   1091491.836 8    850513.000 8  20807264.265    20807266.662    20807264.147
 98  4  9  1 51  0.0000000  0  7G23G26G22G10G13G17G 6
  -2309488.612 7  -1799599.901 7  22799725.642    22799729.272    22799724.747
  -1762205.133 7  -1373144.790 6  23200748.136    23200751.901    23200748.194
   -368451.836 7   -287104.660 7  22570529.528    22570531.824    22570528.694
   2301759.359 7   1793578.177 6  23635573.627    23635576.829    23635572.748
    590496.180 5    460127.549 5  24365483.491    24365486.473    24365483.278
   -882287.641 9   -687496.930 9  20473136.223    20473138.469    20473135.491
   1144363.870 8    891711.973 8  20817325.505    20817327.967    20817325.486
 98  4  9  1 51 30.0000000  0  7G23G26G22G10G17G 6G13
  -2402723.160 7  -1872250.134 7  22781983.273    22781986.818    22781982.779
  -1834477.889 7  -1429461.142 6  23186995.413    23186998.532    23186995.401
   -376578.282 7   -293436.945 7  22568983.098    22568985.265    22568982.313
   2400715.644 6   1870686.957 6  23654404.074    23654407.372    23654403.297
   -914559.739 9   -712644.010 9  20466995.137    20466997.300    20466994.413
   1197651.566 8    933234.841 8  20827465.855    20827468.344    20827465.877
    636520.189 5    495990.448 4  24374241.264    24374243.824    24374241.623
 98  4  9  1 52  0.0000000  0  7G23G26G22G10G17G 6G13
  -2495680.407 7  -1944684.295 7  22764294.481    22764298.046    22764293.701
  -1906357.199 7  -1485470.909 6  23173316.513    23173319.892    23173316.775
   -384104.612 7   -299301.609 7  22567550.744    22567553.102    22567550.010
   2499897.552 6   1947971.535 6  23673277.472    23673280.969    23673276.682
   -946511.740 9   -737541.662 9  20460914.876    20460917.033    20460914.112
   1251348.214 8    975076.371 8  20837684.029    20837686.550    20837683.917
    683043.102 5    532242.102 5  24383093.733    24383097.525    24383094.383
 98  4  9  1 52 30.0000000  0  7G23G26G22G10G17G 6G13
  -2588355.704 7  -2016898.751 7  22746658.981    22746662.267    22746658.235
  -1977849.622 7  -1541179.222 6  23159712.098    23159715.710    23159712.224
   -391021.024 7   -304691.013 7  22566234.688    22566237.015    22566233.825
   2599299.502 6   2025427.549 6  23692193.291    23692196.638    23692192.321
   -978125.540 9   -762175.783 9  20454898.985    20454901.132    20454898.234
   1305453.748 8   1017236.509 8  20847979.909    20847982.458    20847979.909
    730074.225 5    568889.741 5  24392043.546    24392047.200    24392044.212
 98  4  9  1 53  0.0000000  0  7G23G26G22G10G17G 6G13
  -2680741.327 7  -2088887.492 7  22729078.777    22729081.784    22729077.868
  -2048960.049 7  -1596589.860 6  23146180.378    23146184.049    23146180.600
   -397330.428 7   -309607.421 7  22565033.968    22565036.508    22565033.217
   2698908.806 6   2103045.161 6  23711147.042    23711151.070    23711146.833
  -1009374.512 9   -786525.622 9  20448952.411    20448954.653    20448951.667
   1359993.648 8   1059735.117 8  20858358.531    20858361.056    20858358.480
    777621.681 5    605939.746 4  24401091.652    24401094.568    24401092.245
 98  4  9  1 53 30.0000000  0  7G23G26G22G10G17G 6G13
  -2772845.774 7  -2160657.141 7  22711551.819    22711554.619    22711551.013
  -2119683.689 6  -1651699.107 6  23132722.107    23132725.205    23132722.127
   -403047.059 7   -314061.929 7  22563946.405    22563948.783    22563945.451
   2798711.378 6   2180813.391 6  23730140.477    23730143.154    23730139.565
  -1040253.854 9   -810587.442 9  20443076.278    20443078.478    20443075.537
   1414989.035 8   1102588.646 8  20868823.983    20868826.258    20868823.768
    825695.860 5    643400.184 4  24410239.475    24410242.658    24410240.040
 98  4  9  1 54  0.0000000  0  6G23G26G22G10G17G 6
  -2864666.150 7  -2232205.433 7  22694079.126    22694081.886    22694078.094
  -2190010.687 6  -1706499.288 6  23119339.052    23119342.672    23119339.122
   -408187.706 7   -318067.619 7  22562967.729    22562970.462    22562967.087
   2898704.555 6   2258730.109 6  23749167.743    23749171.534    23749166.851
  -1070751.957 9   -834352.190 9  20437272.637    20437274.900    20437271.924
   1470442.957 8   1145799.480 8  20879376.378    20879378.881    20879376.221
 98  4  9  1 54 30.0000000  0  6G23G26G22G10G17G 6
  -2956205.986 7  -2303535.128 7  22676659.370    22676662.415    22676658.792
  -2259941.089 6  -1760990.432 6  23106031.580    23106035.140    23106031.654
   -412769.773 7   -321638.051 7  22562095.982    22562098.601    22562095.197
   2998879.388 6   2336788.398 5  23768231.332    23768233.809    23768230.720
  -1100850.550 9   -857805.629 9  20431545.073    20431547.315    20431544.421
   1526359.132 8   1189370.511 8  20890017.090    20890019.436    20890016.817
 98  4  9  1 55  0.0000000  0  7G23G26G22G10G17G 6G13
  -3047471.829 7  -2374651.320 7  22659291.973    22659295.089    22659291.134
  -2329460.911 6  -1815161.640 6  23092802.331    23092805.902    23092802.391
   -416796.885 7   -324776.054 7  22561329.577    22561332.228    22561328.912
   3099235.768 6   2414988.161 5  23787328.240    23787330.861    23787327.546
  -1130553.420 9   -880950.713 9  20425892.821    20425894.950    20425892.073
   1582741.399 8   1233304.727 8  20900746.254    20900748.580    20900746.036
        -1.14815        -0.68014  24438268.847    24438271.362    24438269.094
 98  4  9  1 55 30.0000000  0  6G23G26G22G10G17G 6
  -3138475.141 7  -2445562.934 7  22641974.861    22641977.977    22641974.017
  -2398569.542 6  -1869012.452 6  23079651.304    23079654.810    23079651.613
   -420261.479 7   -327475.731 7  22560670.609    22560673.180    22560669.622
   3199781.169 6   2493335.199 5  23806461.373    23806464.507    23806460.446
  -1159865.346 9   -903791.167 9  20420314.928    20420317.098    20420314.147
   1639564.969 8   1277582.819 8  20911559.360    20911561.736    20911559.121
 98  4  9  1 56  0.0000000  0  6G23G26G22G10G17G 6
  -3229213.415 7  -2516268.017 7  22624707.280    22624710.908    22624706.857
  -2467282.584 7  -1922555.009 6  23066575.649    23066579.229    23066575.737
   -423158.342 7   -329733.015 7  22560118.738    22560121.806    22560118.195
   3300525.947 6   2571837.583 5  23825632.273    23825635.455    23825631.501
  -1188793.432 9   -926332.525 9  20414810.103    20414812.251    20414809.374
   1696827.471 8   1322202.937 8  20922455.851    20922458.545    20922455.915
 98  4  9  1 56 30.0000000  0  7G23G26G22G10G13G17G 6
  -3319675.996 7  -2586758.287 7  22607493.130    22607496.387    22607492.453
  -2535603.054 7  -1975791.683 6  23053574.867    23053578.095    23053574.951
   -425479.033 7   -331541.337 7  22559677.326    22559680.274    22559676.526
   3401465.086 6   2650491.437 5  23844840.601    23844843.090    23844839.594
        -0.23715                  24467129.688                    24467129.962
  -1217354.505 9   -948587.898 9  20409375.145    20409377.255    20409374.404
   1754521.772 8   1367159.516 8  20933435.017    20933437.286    20933434.824
 98  4  9  1 57  0.0000000  0  6G23G26G22G10G17G 6
  -3409856.259 7  -2657028.568 7  22590332.497    22590335.757    22590331.646
  -2603534.047 7  -2028724.862 6  23040648.235    23040651.581    23040648.501
   -427205.503 7   -332886.632 7  22559348.521    22559351.787    22559348.025
   3502598.154 6   2729296.401 5  23864085.138    23864088.604    23864084.382
  -1245558.222 9   -970564.809 9  20404008.155    20404010.237    20404007.421
   1812641.916 8   1412447.918 8  20944494.890    20944497.209    20944494.653
 98  4  9  1 57 30.0000000  0  7G23G26G22G10G17G 6G13
  -3499743.743 7  -2727070.713 7  22573227.410    22573230.301    22573226.456
  -2671081.155 7  -2081358.902 6  23027794.114    23027797.582    23027794.248
   -428326.769 7   -333760.334 7  22559135.377    22559138.397    22559134.746
   3603927.304 6   2808254.151 5  23883367.905    23883370.998    23883366.967
  -1273416.669 9   -992272.683 9  20398706.905    20398708.955    20398706.162
   1871192.605 8   1458071.814 8  20955636.583    20955638.931    20955636.469
        -0.45315                  24486840.373                    24486840.459
 98  4  9  1 58  0.0000000  0  6G23G26G22G10G17G 6
  -3589326.350 7  -2796875.285 7  22556180.480    22556183.419    22556179.566
  -2738226.785 7  -2133680.119 6  23015016.271    23015020.203    23015016.459
   -428838.058 7   -334158.739 7  22559038.544    22559041.191    22559037.481
   3705454.308 6   2887366.059 6  23902688.152    23902691.387    23902686.887
  -1300942.835 9  -1013721.636 9  20393468.733    20393470.947    20393467.980
   1930186.313 8   1504040.920 8  20966862.547    20966865.056    20966862.512
 98  4  9  1 58 30.0000000  0  7G23G26G22G10G17G 6G13
  -3678605.302 7  -2866443.251 7  22539191.104    22539193.959    22539190.296
  -2804954.177 7  -2185675.418 6  23002318.944    23002322.262    23002319.121
   -428730.285 7   -334074.753 7  22559058.557    22559061.650    22559057.911
   3807173.515 6   2966627.749 6  23922043.277    23922048.102    23922042.891
  -1328126.936 9  -1034904.045 9  20388295.814    20388297.991    20388295.005
   1989623.568 8   1550355.643 8  20978173.385    20978175.739    20978173.144
        -1.11215                  24506925.389                    24506925.787
 98  4  9  1 59  0.0000000  0  6G 6G23G26G22G10G17
   2049511.306 8   1597021.392 8  20989569.240    20989572.029    20989569.368
  -3767607.660 7  -2935795.684 7  22522254.827    22522257.476    22522253.867
  -2871247.594 7  -2237332.582 6  22989703.435    22989706.872    22989703.604
   -428004.892 7   -333509.506 7  22559196.807    22559199.533    22559195.719
   3909098.404 6   3046049.717 6  23941439.575    23941443.942    23941439.080
  -1354955.968 9  -1055809.775 9  20383190.309    20383192.605    20383189.540
 98  4  9  1 59 30.0000000  0  7G 6G23G26G22G10G17G13
   2109849.367 8   1644038.046 8  21001051.328    21001054.004    21001051.303
  -3856335.973 7  -3004934.583 7  22505370.188    22505372.950    22505369.434
  -2937089.215 7  -2288637.687 6  22977173.937    22977177.560    22977174.114
   -426681.380 7   -332478.194 7  22559448.000    22559451.407    22559447.491
   4011230.194 6   3125632.910 6  23960874.771    23960878.652    23960873.837
  -1381425.171 9  -1076435.117 9  20378153.442    20378155.690    20378152.804
        -0.47115                  24527367.238                    24527366.967
 98  4  9  2  0  0.0000000  0  6G 6G23G26G22G10G17
   2170626.930 8   1691397.166 8  21012617.046    21012619.663    21012616.909
  -3944793.073 7  -3073862.143 7  22488537.272    22488540.139    22488536.560
  -3002466.514 7  -2339580.981 6  22964732.979    22964736.539    22964733.182
   -424779.307 7   -330996.048 7  22559810.630    22559813.300    22559809.568
   4113555.066 6   3205366.571 6  23980346.524    23980350.237    23980345.504
  -1407516.186 9  -1096765.771 9  20373188.508    20373190.702    20373187.819
 98  4  9  2  0 30.0000000  0  6G 6G23G26G22G10G17
   2231821.437 8   1739081.181 8  21024261.816    21024264.705    21024261.892
  -4032982.480 7  -3142581.106 7  22471755.244    22471758.125    22471754.412
  -3067390.005 7  -2390170.654 6  22952378.538    22952381.897    22952378.548
   -422319.013 7   -329078.935 7  22560278.842    22560281.484    22560278.000
   4216057.606 6   3285238.662 6  23999852.687    23999856.153    23999851.681
  -1433213.196 9  -1116789.404 9  20368298.371    20368300.544    20368297.710
 98  4  9  2  1  0.0000000  0  6G 6G23G26G22G10G17
   2293428.966 8   1787087.030 8  21035985.546    21035988.267    21035985.460
  -4120892.068 7  -3211082.030 7  22455026.195    22455029.751    22455025.555
  -3131860.030 7  -2440406.998 6  22940110.687    22940113.666    22940110.643
   -419319.368 7   -326741.535 7  22560849.284    22560852.205    22560848.567
   4318734.054 6   3365246.269 6  24019391.148    24019394.786    24019390.063
  -1458518.953 9  -1136508.168 9  20363482.833    20363485.154    20363482.242
 98  4  9  2  1 30.0000000  0  6G 6G23G26G22G10G17
   2355451.593 8   1835416.332 8  21047788.076    21047790.877    21047787.991
  -4208491.301 7  -3279341.126 7  22438356.206    22438359.724    22438355.838
  -3195882.484 7  -2490294.554 6  22927927.724    22927930.473    22927927.764
   -415787.798 7   -323989.657 7  22561521.903    22561524.200    22561521.006
   4421560.639 6   3445370.873 6  24038958.489    24038961.763    24038957.373
  -1483443.482 9  -1155929.868 9  20358739.845    20358742.201    20358739.251
 98  4  9  2  2  0.0000000  0  6G 6G23G26G22G10G17
   2417887.855 8   1884067.944 8  21059669.336    21059672.013    21059669.183
  -4295766.697 8  -3347347.881 7  22421748.428    22421751.757    22421747.959
  -3259467.880 7  -2539841.552 6  22915827.431    22915830.428    22915827.568
   -411706.997 7   -320809.805 7  22562298.056    22562300.647    22562297.301
   4524527.324 6   3525604.631 6  24058551.363    24058556.358    24058551.067
  -1507986.946 9  -1175054.636 9  20354069.438    20354071.740    20354068.772
 98  4  9  2  2 30.0000000  0  6G 6G23G26G22G10G17
   2480746.980 8   1933049.064 8  21071631.030    21071633.841    21071631.046
  -4382710.740 8  -3415096.436 7  22405203.679    22405206.929    22405203.138
  -3322628.909 7  -2589057.877 7  22903808.260    22903811.680    22903808.327
   -407056.094 7   -317185.718 7  22563183.045    22563185.704    22563182.313
   4627645.277 6   3605956.237 6  24078174.188    24078178.993    24078173.778
  -1532150.571 9  -1193883.424 9  20349471.325    20349473.505    20349470.587
 98  4  9  2  3  0.0000000  0  6G 6G23G26G22G10G17
   2544055.466 8   1982380.335 8  21083678.219    21083680.968    21083678.253
  -4469326.103 8  -3482588.884 7  22388721.313    22388724.368    22388720.691
  -3385353.218 7  -2637933.898 7  22891872.189    22891875.573    22891872.206
   -401812.460 7   -313099.765 7  22564180.921    22564183.544    22564180.083
   4730920.492 6   3686430.415 6  24097826.998    24097831.353    24097826.555
  -1555941.562 9  -1212421.845 9  20344944.006    20344946.226    20344943.280
 98  4  9  2  3 30.0000000  0  6G23G26G22G 6G17G10
  -4555616.021 8  -3549827.732 7  22372300.808    22372303.943    22372300.280
  -3447632.244 7  -2686462.951 7  22880020.652    22880023.837    22880020.772
   -395959.518 7   -308539.026 7  22565294.362    22565297.243    22565293.810
   2607810.640 8   2032059.673 8  21095810.556    21095813.127    21095810.414
  -1579369.561 9  -1230677.419 9  20340485.758    20340487.973    20340485.077
   4834340.216 6   3767017.187 6  24117507.249    24117511.935    24117507.059
 98  4  9  2  4  0.0000000  0  6G 6G23G26G22G10G17
   2671992.295 8   2082071.334 8  21108023.974    21108026.424    21108023.766
  -4641600.395 8  -3616828.500 7  22355938.670    22355941.673    22355938.106
  -3509465.468 7  -2734644.604 7  22868254.029    22868257.262    22868254.112
   -389501.604 7   -303506.880 7  22566523.605    22566526.198    22566522.805
   4937927.398 6   3847734.399 6  24137219.530    24137223.880    24137218.524
  -1602426.646 9  -1248643.970 9  20336098.098    20336100.352    20336097.409
 98  4  9  2  4 30.0000000  0  6G 6G23G26G22G10G17
   2736592.187 8   2132408.897 8  21120316.764    21120319.467    21120316.831
  -4727295.800 8  -3683604.087 7  22339631.436    22339634.393    22339630.635
  -3570836.255 7  -2782465.949 7  22856575.496    22856578.836    22856575.615
   -382465.883 7   -298024.500 7  22567862.234    22567865.012    22567861.704
   5041686.637 6   3928585.751 5  24156964.193    24156967.862    24156963.279
  -1625128.732 9  -1266333.897 9  20331778.067    20331780.307    20331777.309
 98  4  9  2  5  0.0000000  0  6G 6G23G26G22G10G17
   2801595.293 8   2183060.646 8  21132686.763    21132689.184    21132686.615
  -4812707.659 8  -3750158.727 7  22323377.880    22323380.926    22323377.351
  -3631725.882 7  -2829912.357 7  22844989.191    22844991.999    22844989.213
   -374860.040 7   -292097.865 7  22569310.029    22569312.442    22569309.098
   5145604.721 5   4009560.892 4  24176739.400    24176742.296    24176738.470
  -1647495.010 9  -1283762.157 9  20327521.718    20327524.053    20327521.095
 98  4  9  2  5 30.0000000  0  6G 6G23G26G22G10G17
   2866989.161 8   2234016.895 8  21145130.628    21145133.330    21145130.534
  -4897826.455 8  -3816485.013 7  22307180.253    22307183.386    22307179.605
  -3692140.758 7  -2876988.837 7  22833492.332    22833495.682    22833492.315
   -366704.318 7   -285742.755 7  22570861.588    22570864.330    22570861.079
   5249689.692 5   4090666.042 5  24196544.999    24196550.297    24196544.754
  -1669520.915 9  -1300925.192 9  20323330.548    20323332.733    20323329.840
 98  4  9  2  6  0.0000000  0  6G 6G23G26G22G10G17
   2932772.934 8   2285276.955 8  21157648.738    21157651.427    21157648.737
  -4982658.570 8  -3882587.919 7  22291037.224    22291040.098    22291036.507
  -3752085.629 7  -2923699.074 7  22822084.806    22822088.313    22822084.899
   -357999.254 7   -278959.589 7  22572518.346    22572520.957    22572517.632
   5353944.856 6   4171903.819 4  24216384.682    24216388.783    24216384.261
  -1691193.951 9  -1317813.258 9  20319206.245    20319208.480    20319205.546
 98  4  9  2  6 30.0000000  0  6G 6G23G26G22G10G17
   2998967.063 8   2336856.777 8  21170245.260    21170247.762    21170245.074
  -5067187.162 8  -3948454.306 7  22274951.887    22274954.928    22274951.164
  -3811559.292 7  -2970042.141 7  22810767.660    22810771.047    22810767.599
   -348718.794 7   -271728.065 7  22574284.515    22574287.115    22574283.794
   5458344.066 5                  24236250.846                    24236250.001
  -1712511.493 9  -1334424.323 9  20315149.574    20315151.861    20315148.953
 98  4  9  2  7  0.0000000  0  5G 6G23G26G22G17
   3065587.457 8   2388768.754 8  21182922.791    21182925.283    21182922.557
  -5151404.984 8  -4014078.539 7  22258925.901    22258928.726    22258924.941
  -3870566.257 7  -3016021.529 7  22799538.771    22799542.227    22799538.671
   -338846.332 7   -264035.239 7  22576163.090    22576165.599    22576162.310
  -1733436.049 9  -1350729.163 9  20311167.866    20311170.092    20311167.139
 98  4  9  2  7 30.0000000  0  6G 6G23G26G22G10G17
   3132637.478 8   2441015.505 8  21195682.088    21195684.593    21195681.944
  -5235315.271 8  -4079463.129 7  22242958.012    22242961.273    22242957.397
  -3929109.742 7  -3061639.782 7  22788397.718    22788401.455    22788397.845
   -328384.151 7   -255882.889 7  22578153.841    22578156.451    22578153.103
        -0.48216        -0.16014  24276062.033    24276064.127    24276061.160
  -1753950.566 9  -1366714.492 9  20307264.050    20307266.265    20307263.280
 98  4  9  2  8  0.0000000  0  6G 6G23G26G22G10G17
   3200110.199 8   2493591.632 8  21208521.499    21208524.140    21208521.454
  -5318928.004 8  -4144615.860 7  22227046.922    22227050.272    22227046.402
  -3987185.981 7  -3106893.938 7  22777346.315    22777349.757    22777346.482
   -317317.187 7   -247259.284 7  22580259.905    22580262.490    22580259.108
    104776.424 6     81644.152 4  24295999.664    24296002.995    24295999.127
  -1774066.178 9  -1382388.986 9  20303436.271    20303438.399    20303435.502
 98  4  9  2  8 30.0000000  0  6G 6G23G26G22G10G17
   3268013.592 8   2546503.351 8  21221443.120    21221445.624    21221443.043
  -5402237.957 8  -4209532.660 7  22211193.484    22211196.891    22211192.919
  -4044789.170 7  -3151779.485 7  22766385.303    22766388.394    22766385.356
   -305661.414 7   -238176.865 7  22582477.915    22582480.616    22582476.956
    209672.000 6                  24315960.818                    24315959.890
  -1793789.530 9  -1397757.823 9  20299683.071    20299685.127    20299682.274
 98  4  9  2  9  0.0000000  0  6G 6G23G26G22G 3G17
   3336330.557 8   2599737.331 8  21234443.245    21234446.134    21234443.238
  -5485252.504 8  -4274219.273 7  22195396.537    22195399.572    22195395.880
  -4101906.192 7  -3196286.208 7  22755516.052    22755519.456    22755516.176
   -293433.280 7   -228648.456 7  22584804.667    22584807.655    22584804.047
        -0.14216                  24639266.338                    24639266.222
  -1813137.054 9  -1412833.806 9  20296001.330    20296003.343    20296000.515
 98  4  9  2  9 30.0000000  0  5G 6G23G26G22G17
   3405046.626 8   2653282.300 8  21247519.349    21247522.272    21247519.378
  -5567964.206 8  -4338669.905 7  22179656.954    22179660.148    22179656.316
  -4158538.152 7  -3240414.962 7  22744739.407    22744742.714    22744739.615
   -280629.878 7   -218671.781 7  22587241.220    22587243.767    22587240.411
  -1832150.761 9  -1427649.674 9  20292383.113    20292385.138    20292382.337
 98  4  9  2 10  0.0000000  0  7G 6G23G26G22G10G 3G17
   3474174.600 8   2707148.229 8  21260674.488    21260676.962    21260674.224
  -5650348.425 8  -4402865.355 7  22163979.822    22163982.724    22163979.203
  -4214687.932 7  -3284168.005 7  22734054.508    22734057.760    22734054.546
   -267263.993 7   -208256.812 7  22589784.707    22589787.304    22589783.886
        -0.91716        -0.50315  24376008.656    24376012.524    24376007.857
        -0.35316        -0.44815  24598651.138    24598654.212    24598650.037
  -1850828.617 9  -1442203.838 9  20288828.736    20288830.944    20288828.029
 98  4  9  2 10 30.0000000  0  7G 6G23G26G22G10G 3G17
   3543717.195 8   2761337.237 8  21273907.767    21273910.481    21273907.752
  -5732379.486 8  -4466785.625 7  22148369.933    22148372.842    22148369.091
  -4270352.405 7  -3327542.882 7  22723461.577    22723465.171    22723461.700
   -253342.157 7   -197408.626 7  22592433.975    22592436.338    22592433.043
    105503.206 6     82210.481 5  24396085.046    24396089.091    24396084.872
   -106592.314 6    -83059.028 6  24578367.198    24578370.484    24578365.897
  -1869155.848 9  -1456484.789 9  20285341.229    20285343.379    20285340.491
 98  4  9  2 11  0.0000000  0  7G 6G23G26G22G10G 3G17
   3613668.525 8   2815844.752 8  21287219.383    21287221.873    21287219.185
  -5814040.171 8  -4530417.288 7  22132830.024    22132833.038    22132829.406
  -4325531.269 7  -3370539.361 7  22712961.669    22712964.769    22712961.950
   -238858.224 7   -186122.447 7  22595190.046    22595192.595    22595189.223
    211158.956 6    164539.620 5  24416190.942    24416194.767    24416190.519
   -213110.436 5   -166060.022 5  24558096.112    24558100.399    24558095.849
  -1887127.868 9  -1470488.955 9  20281921.120    20281923.385    20281920.491
 98  4  9  2 11 30.0000000  0  7G 6G23G26G22G10G 3G17
   3684042.363 8   2870681.482 8  21300610.786    21300613.456    21300610.745
  -5895323.098 8  -4593754.593 8  22117362.566    22117365.664    22117361.892
  -4380239.935 7  -3413169.443 7  22702551.190    22702553.802    22702551.412
   -223817.913 7   -174402.722 7  22598052.067    22598054.655    22598051.382
    316943.753 6    246969.334 6  24436321.186    24436325.055    24436320.706
   -319571.859 5   -249016.838 5  24537837.180    24537841.599    24537836.822
  -1904728.977 9  -1484204.098 9  20278571.771    20278574.051    20278571.125
 98  4  9  2 12  0.0000000  0  7G 6G23G26G22G10G 3G17
   3754841.585 8   2925849.680 8  21314083.506    21314086.244    21314083.302
  -5976231.673 8  -4656800.190 8  22101965.939    22101969.172    22101965.421
  -4434472.740 7  -3455428.732 7  22692230.498    22692233.688    22692230.638
   -208228.044 7   -162254.773 7  22601019.074    22601021.337    22601018.033
    422856.137 6    329498.451 6  24456475.933    24456479.696    24456475.168
   -425983.921 5                  24517587.879                    24517586.942
  -1921932.414 9  -1497609.368 9  20275298.207    20275300.230    20275297.433
 98  4  9  2 12 30.0000000  0  6G 6G23G26G22G10G17
   3826055.946 8   2981341.364 8  21327635.180    21327637.962    21327634.940
  -6056795.675 8  -4719577.295 8  22086635.276    22086638.289    22086634.520
  -4488221.816 7  -3497311.075 7  22682002.349    22682005.488    22682002.337
   -192077.798 7   -149670.168 7  22604092.126    22604094.746    22604091.507
    528881.895 6    412115.922 6  24476651.697    24476655.517    24476650.895
  -1938735.822 9  -1510702.927 9  20272100.659    20272102.696    20272099.934
 98  4  9  2 13  0.0000000  0  6G 6G23G26G22G10G17
   3897693.572 8   3037162.865 8  21341267.272    21341270.014    21341267.118
  -6137048.228 8  -4782111.704 8  22071363.955    22071366.610    22071363.276
  -4541477.706 7  -3538809.137 7  22671868.097    22671871.223    22671868.227
   -175366.629 7   -136648.479 7  22607272.424    22607274.674    22607271.609
    635016.450 5    494818.144 5  24496847.749    24496852.150    24496847.411
  -1955141.590 9  -1523486.634 9  20268978.795    20268980.808    20268978.043
 98  4  9  2 13 30.0000000  0  7G23G26G22G 6G10G 3G17
  -6217011.293 8  -4844420.546 8  22056147.302    22056150.259    22056146.727
  -4594232.207 7  -3579916.496 7  22661829.151    22661832.105    22661829.214
   -158091.491 7   -123187.333 7  22610559.848    22610561.937    22610558.924
   3969748.257 8   3093309.358 8  21354978.608    21354981.614    21354978.583
    741270.096 5    577613.212 6  24517067.272    24517071.727    24517066.274
        -0.07716         0.39115  24456913.209    24456916.918    24456912.864
  -1971143.699 9  -1535955.803 9  20265933.688    20265935.639    20265932.897
 98  4  9  2 14  0.0000000  0  7G23G26G22G 6G10G 3G17
  -6296680.505 8  -4906500.412 8  22040986.624    22040989.555    22040986.112
  -4646472.144 7  -3620622.890 7  22651888.487    22651891.327    22651888.456
   -140242.840 7   -109279.294 7  22613956.036    22613958.416    22613955.355
   4042207.523 8   3149771.101 8  21368767.431    21368770.209    21368767.309
    847647.661 5    660504.906 6  24537310.887    24537314.708    24537309.756
   -106097.532 5    -82672.857 6  24436722.611    24436727.121    24436722.695
  -1986743.616 9  -1548111.575 9  20262965.095    20262967.186    20262964.371
 98  4  9  2 14 30.0000000  0  7G23G17G26G22G 6G10G 3
  -6376044.716 8  -4968342.616 8  22025884.122    22025887.072    22025883.391
  -2001955.556 9  -1559965.027 9  20260070.287    20260072.342    20260069.600
  -4698191.391 7  -3660923.563 7  22642047.038    22642049.139    22642046.883
   -121811.819 7    -94917.462 7  22617463.368    22617465.810    22617462.594
   4115067.867 8   3206545.371 8  21382632.217    21382635.173    21382632.223
    954134.456 5    743481.711 5  24557574.104    24557577.822    24557573.401
   -212071.739 5   -165250.006 5  24416556.444    24416561.600    24416555.880
 98  4  9  2 15  0.0000000  0  7G23G26G22G 6G10G 3G17
  -6455069.414 8  -5029920.265 8  22010845.926    22010849.227    22010845.363
  -4749391.753 7  -3700819.911 7  22632303.760    22632306.205    22632303.788
   -102790.630 7    -80095.761 7  22621082.640    22621085.419    22621082.072
   4188309.292 8   3263616.587 8  21396570.121    21396572.596    21396569.916
   1060729.943 5    826543.159 5  24577858.398    24577863.267    24577857.840
   -317935.172 5   -247740.850 6  24396411.618    24396415.458    24396410.892
  -2016803.405 9  -1571534.774 9  20257244.776    20257246.901    20257244.130
 98  4  9  2 15 30.0000000  0  7G23G26G22G17G 6G10G 3
  -6533721.017 8  -5091207.187 8  21995879.052    21995882.111    21995878.326
  -4800084.740 7  -3740320.896 7  22622656.794    22622659.915    22622656.927
    -83191.635 7    -64823.818 7  22624812.346    22624815.055    22624811.438
  -2031296.773 9  -1582828.299 9  20254486.955    20254489.006    20254486.228
   4261916.240 8   3320972.624 8  21410577.181    21410579.368    21410576.972
   1167423.522 5    909681.074 5  24598161.647    24598165.904    24598160.621
   -423699.910 6   -330154.810 6  24376286.079    24376289.538    24376285.789
 98  4  9  2 16  0.0000000  0  8G23G26G17G22G 6G10G 3G21
  -6611987.092 8  -5152193.702 8  21980985.541    21980988.643    21980984.792
  -4850269.567 7  -3779425.902 7  22613106.701    22613110.048    22613106.875
  -2045452.673 9  -1593858.866 9  20251793.119    20251795.186    20251792.382
    -63019.182 7    -49105.032 7  22628650.928    22628653.816    22628650.298
   4335884.659 8   3378610.334 8  21424652.923    21424655.361    21424652.643
   1274199.868 5    992883.453 5  24618480.677    24618484.563    24618479.897
   -529374.732 6   -412498.773 5  24356176.341    24356180.123    24356175.890
        -0.52715                  24969330.490                    24969331.928
 98  4  9  2 16 30.0000000  0  7G23G26G17G22G 6G10G 3
  -6689882.421 8  -5212891.325 8  21966162.590    21966165.521    21966161.887
  -4899943.883 7  -3818133.125 7  22603654.039    22603656.917    22603654.184
  -2059276.322 9  -1604630.535 9  20249162.566    20249164.638    20249161.801
    -42289.521 7    -32952.057 7  22632595.877    22632598.452    22632594.987
   4410220.690 8   3436534.484 8  21438798.527    21438801.091    21438798.321
   1381061.749 5   1076152.468 5  24638816.225    24638819.798    24638815.478
   -634970.946 6   -494781.501 5  24336082.632    24336085.432    24336081.842
 98  4  9  2 17  0.0000000  0  8G23G26G17G22G 6G10G 3G21
  -6767427.112 8  -5273315.721 8  21951406.215    21951409.360    21951405.669
  -4949104.637 7  -3856440.174 7  22594299.002    22594302.249    22594299.126
  -2072751.685 9  -1615130.812 9  20246598.030    20246600.299    20246597.332
    -21024.812 7    -16382.161 7  22636642.235    22636645.038    22636641.557
   4484929.606 8   3494749.195 8  21453014.718    21453017.641    21453014.675
   1488009.559 5   1159488.486 4  24659168.330    24659171.488    24659166.871
   -740493.776 6   -577007.045 4  24316001.460    24316003.922    24316000.884
        -0.15214                  24929395.857                    24929395.709
 98  4  9  2 17 30.0000000  0  6G23G26G22G 6G10G17
  -6844647.402 8  -5333487.331 8  21936711.666    21936714.479    21936711.124
  -4997735.154 7  -3894334.042 7  22585045.144    22585047.921    22585045.207
       762.707 7       595.119 7  22640788.271    22640791.083    22640787.490
   4560042.050 8   3553278.350 8  21467308.050    21467311.017    21467308.153
   1595041.436 5                  24679535.567    24679534.447
  -2085859.032 9  -1625344.323 9  20244103.798    20244106.033    20244103.080
 98  4  9  2 18  0.0000000  0  6G23G17G26G22G 6G 3
  -6921561.267 8  -5393420.172 8  21922075.437    21922078.500    21922074.927
  -2098590.978 9  -1635265.312 9  20241680.881    20241683.226    20241680.193
  -5045821.119 7  -3931803.578 7  22575894.663    22575897.197    22575894.921
     23090.556 7     17993.438 7  22645037.340    22645039.933    22645036.434
   4635574.666 8   3612134.906 8  21481681.687    21481684.196    21481681.435
        -1.11616        -0.88615  24275900.284    24275903.924    24275899.835
 98  4  9  2 18 30.0000000  0  8G23G17G26G22G 6G10G21G 3
  -6998160.676 8  -5453107.978 8  21907499.254    21907501.829    21907498.572
  -2110930.840 9  -1644880.784 9  20239332.831    20239334.951    20239332.129
  -5093362.756 7  -3968848.962 7  22566847.636    22566850.700    22566847.720
     45958.125 7     35812.314 7  22649388.932    22649391.538    22649388.002
   4711533.035 8   3671323.227 8  21496135.770    21496138.797    21496135.717
        -0.81116                  24720322.208                    24720321.616
         0.16014                  24869606.169                    24869605.188
   -105186.965 6    -81963.793 6  24255884.129    24255888.033    24255883.859
 98  4  9  2 19  0.0000000  0  6G23G17G26G22G 6G 3
  -7074420.140 8  -5512530.898 8  21892987.302    21892990.121    21892986.757
  -2122875.548 9  -1654188.340 9  20237060.012    20237061.983    20237059.186
  -5140363.468 7  -4005472.844 7  22557903.168    22557906.701    22557903.438
     69377.732 7     54061.351 7  22653845.408    22653848.223    22653844.917
   4787907.899 8   3730836.079 8  21510669.441    21510672.317    21510669.526
   -210248.161 6   -163829.594 6  24235891.190    24235895.501    24235891.234
